M I D A S
Marine Information and Data Acquisition System
Tripno 2164 of the Zeeleeuw from 2011-08-16 06:28:40 to 2011-08-16 14:17:33
Back to CruiseResearch ActivitiesStationsMapUnderway DataData graphs

EquipmentUnitsComment
TimeDGPSUTC
LatitudeDGPSDM.mWGS84
LongitudeDGPSDM.mWGS84
TemperatureSBE03/SBE38deg celciusITS90
ConductivitySBE21S/mITS90
SalinitySBE21 Practical Salinity Units
ChlorophylAChelsea fluorimeterg/lCalibrated in Aceton
Missing or incorrect values are displayed as -999
Sea surface data collected by the RV Zeeleeuw from 2011-08-16 06:30:26 to 2011-08-16 14:30:31
                                                                                    Next 1000 lines
Time Latitude Longitude Temperature Conductivity Salinity ChlorophylA
2011-08-16 06:30:36 51°13.636 2°56.016 21.3903 0.075096 0.376215 -3.020363
2011-08-16 06:30:41 51°13.636 2°56.015 21.3697 0.075096 0.376215 -3.020363
2011-08-16 06:30:46 51°13.637 2°56.014 21.3568 0.075096 0.376215 -3.020363
2011-08-16 06:30:51 51°13.638 2°56.011 21.3902 0.074993 0.37569 -3.020363
2011-08-16 06:30:56 51°13.639 2°56.007 21.4183 0.074993 0.37569 -3.020363
2011-08-16 06:31:01 51°13.641 2°56.003 21.4273 0.075096 0.376221 -3.020363
2011-08-16 06:31:06 51°13.642 2°56 21.4324 0.075096 0.376227 -3.020363
2011-08-16 06:31:11 51°13.643 2°55.996 21.4369 0.075096 0.376227 -3.020363
2011-08-16 06:31:16 51°13.644 2°55.993 21.4338 0.075096 0.376227 -3.020363
2011-08-16 06:31:21 51°13.646 2°55.989 21.4322 0.075096 0.376233 -3.020363
2011-08-16 06:31:26 51°13.647 2°55.986 21.4296 0.075096 0.376233 -3.020363
2011-08-16 06:31:31 51°13.648 2°55.983 21.4249 0.074993 0.375708 -3.020363
2011-08-16 06:31:36 51°13.649 2°55.979 21.4052 0.074993 0.375708 -3.020363
2011-08-16 06:31:41 51°13.65 2°55.976 21.4222 0.074993 0.375708 -3.020363
2011-08-16 06:31:46 51°13.652 2°55.972 21.4019 0.075096 0.376239 -3.020363
2011-08-16 06:31:51 51°13.653 2°55.968 21.4166 0.074993 0.375719 -3.020363
2011-08-16 06:31:56 51°13.654 2°55.965 21.421 0.074993 0.375719 -3.020363
2011-08-16 06:32:01 51°13.655 2°55.961 21.4215 0.074993 0.375719 -3.020363
2011-08-16 06:32:06 51°13.656 2°55.958 21.4197 0.075096 0.376256 -3.020363
2011-08-16 06:32:11 51°13.657 2°55.954 21.4207 0.074993 0.375725 -3.020363
2011-08-16 06:32:16 51°13.658 2°55.95 21.4158 0.074993 0.375725 -3.020363
2011-08-16 06:32:21 51°13.659 2°55.945 21.4186 0.074993 0.375731 -3.020363
2011-08-16 06:32:26 51°13.66 2°55.94 21.4207 0.074993 0.375731 -3.020363
2011-08-16 06:32:31 51°13.661 2°55.935 21.433 0.074993 0.375731 -3.020363
2011-08-16 06:32:36 51°13.662 2°55.929 21.4349 0.074993 0.375737 -3.020363
2011-08-16 06:32:41 51°13.662 2°55.923 21.4432 0.074993 0.375743 -3.020363
2011-08-16 06:32:46 51°13.664 2°55.917 21.4268 0.074993 0.375743 -3.020363
2011-08-16 06:32:51 51°13.665 2°55.91 21.4301 0.074993 0.375743 -3.020363
2011-08-16 06:32:56 51°13.666 2°55.904 21.4291 0.074993 0.375743 -3.020363
2011-08-16 06:33:01 51°13.666 2°55.897 21.4312 0.074993 0.375749 -3.020363
2011-08-16 06:33:06 51°13.667 2°55.89 21.4288 0.074993 0.375749 -3.020363
2011-08-16 06:33:11 51°13.668 2°55.882 21.4278 0.074993 0.375755 -3.020363
2011-08-16 06:33:16 51°13.669 2°55.875 21.4301 0.074993 0.375755 -3.020363
2011-08-16 06:33:21 51°13.67 2°55.867 21.4307 0.074993 0.375755 -3.020363
2011-08-16 06:33:26 51°13.671 2°55.859 21.4432 0.074993 0.375755 -3.020363
2011-08-16 06:33:31 51°13.672 2°55.851 21.436 0.074993 0.375755 -3.020363
2011-08-16 06:33:36 51°13.673 2°55.843 21.4344 0.074993 0.375761 -3.020363
2011-08-16 06:33:41 51°13.674 2°55.835 21.4353 0.074993 0.375761 -3.020363
2011-08-16 06:33:46 51°13.675 2°55.826 21.4364 0.074993 0.375767 -3.020363
2011-08-16 06:33:51 51°13.676 2°55.818 21.4366 0.074993 0.375767 -3.020363
2011-08-16 06:33:56 51°13.677 2°55.81 21.436 0.074993 0.375767 -3.020363
2011-08-16 06:34:01 51°13.677 2°55.801 21.4427 0.074993 0.375772 -3.020363
2011-08-16 06:34:06 51°13.678 2°55.794 21.4447 0.074993 0.375772 -3.020363
2011-08-16 06:34:11 51°13.679 2°55.786 21.4403 0.074993 0.375778 -3.020363
2011-08-16 06:34:16 51°13.679 2°55.779 21.4291 0.074993 0.375778 -3.020363
2011-08-16 06:34:21 51°13.679 2°55.772 21.4547 0.074993 0.375778 -3.020363
2011-08-16 06:34:26 51°13.68 2°55.766 21.4277 0.074993 0.375778 -3.020363
2011-08-16 06:34:31 51°13.68 2°55.761 21.434 0.074993 0.375778 -3.020363
2011-08-16 06:34:36 51°13.68 2°55.757 21.4527 0.074993 0.37579 -3.020363
2011-08-16 06:34:41 51°13.68 2°55.754 21.4766 0.074993 0.37579 -3.020363
2011-08-16 06:34:46 51°13.681 2°55.753 21.4929 0.074993 0.37579 -3.020363
2011-08-16 06:34:51 51°13.681 2°55.754 21.4875 0.074993 0.375796 -3.020363
2011-08-16 06:34:55 51°13.682 2°55.755 21.5019 0.074993 0.375796 -3.020363
2011-08-16 06:35:00 51°13.683 2°55.757 21.5075 0.074993 0.375796 -3.020363
2011-08-16 06:35:05 51°13.686 2°55.761 21.5128 0.074993 0.375802 -3.020363
2011-08-16 06:35:10 51°13.688 2°55.764 21.5164 0.074993 0.375808 -3.020363
2011-08-16 06:35:15 51°13.691 2°55.767 21.4805 0.074993 0.375814 -3.020363
2011-08-16 06:35:20 51°13.695 2°55.77 21.4547 0.074993 0.37582 -3.020363
2011-08-16 06:35:25 51°13.698 2°55.772 21.4288 0.074993 0.37582 -3.020363
2011-08-16 06:35:30 51°13.701 2°55.775 21.4283 0.074993 0.375825 -3.020363
2011-08-16 06:35:35 51°13.704 2°55.776 21.4014 0.074993 0.375825 -3.020363
2011-08-16 06:35:40 51°13.707 2°55.778 21.4015 0.074993 0.375831 -3.020363
2011-08-16 06:35:46 51°13.71 2°55.779 21.4064 0.074993 0.375825 -3.020363
2011-08-16 06:35:51 51°13.712 2°55.779 21.4146 0.074993 0.375825 -3.020363
2011-08-16 06:35:55 51°13.713 2°55.78 21.4179 0.074993 0.375825 -3.020363
2011-08-16 06:36:00 51°13.715 2°55.78 21.4229 0.074993 0.375825 -3.020363
2011-08-16 06:36:06 51°13.716 2°55.78 21.4231 0.074993 0.375825 -3.020363
2011-08-16 06:36:11 51°13.717 2°55.781 21.4076 0.074993 0.37582 -3.020363
2011-08-16 06:36:16 51°13.718 2°55.781 21.4066 0.074993 0.37582 -3.020363
2011-08-16 06:36:21 51°13.718 2°55.781 21.4163 0.074993 0.375825 -3.020363
2011-08-16 06:36:26 51°13.717 2°55.781 21.3656 0.074993 0.375825 -3.020363
2011-08-16 06:36:31 51°13.716 2°55.781 21.4594 0.074993 0.37582 -3.020363
2011-08-16 06:36:36 51°13.716 2°55.781 21.457 0.074993 0.37582 -3.020363
2011-08-16 06:36:41 51°13.715 2°55.781 21.4663 0.074993 0.37582 -3.020363
2011-08-16 06:36:46 51°13.714 2°55.782 21.4581 0.074993 0.375825 -3.020363
2011-08-16 06:36:51 51°13.714 2°55.782 21.4572 0.074993 0.375825 -3.020363
2011-08-16 06:36:56 51°13.713 2°55.782 21.4669 0.074993 0.375825 -3.020363
2011-08-16 06:37:01 51°13.714 2°55.782 21.4845 0.074993 0.375825 -3.020363
2011-08-16 06:37:06 51°13.715 2°55.781 21.4761 0.074993 0.375825 -3.020363
2011-08-16 06:37:11 51°13.716 2°55.779 21.4999 0.074993 0.375825 -3.020363
2011-08-16 06:37:16 51°13.719 2°55.778 21.4958 0.074993 0.375831 -3.020363
2011-08-16 06:37:21 51°13.721 2°55.776 21.4944 0.074993 0.375837 -3.020363
2011-08-16 06:37:26 51°13.724 2°55.773 21.4962 0.074993 0.375837 -3.020363
2011-08-16 06:37:31 51°13.727 2°55.768 21.4947 0.074993 0.375843 -3.020363
2011-08-16 06:37:35 51°13.73 2°55.764 21.4895 0.074993 0.375843 -3.020363
2011-08-16 06:37:41 51°13.735 2°55.757 21.4818 0.074993 0.375843 -3.020363
2011-08-16 06:37:46 51°13.739 2°55.75 21.4672 0.074993 0.375849 -3.020363
2011-08-16 06:37:51 51°13.744 2°55.743 21.4516 0.074993 0.375849 -3.020363
2011-08-16 06:37:55 51°13.748 2°55.737 21.4268 0.074993 0.375849 -3.020363
2011-08-16 06:38:00 51°13.753 2°55.728 21.4303 0.074993 0.375849 -3.020363
2011-08-16 06:38:06 51°13.76 2°55.717 21.4358 0.074993 0.375849 -3.020363
2011-08-16 06:38:11 51°13.766 2°55.708 21.4157 0.074993 0.375849 -3.020363
2011-08-16 06:38:15 51°13.771 2°55.701 21.3983 0.074993 0.375855 -3.020363
2011-08-16 06:38:20 51°13.777 2°55.692 21.4043 0.074993 0.375855 -3.020363
2011-08-16 06:38:25 51°13.784 2°55.683 21.4015 0.074993 0.375855 -3.020363
2011-08-16 06:38:31 51°13.791 2°55.674 21.4058 0.074993 0.375855 -3.020363
2011-08-16 06:38:35 51°13.797 2°55.667 21.4038 0.074993 0.375861 -3.020363
2011-08-16 06:38:40 51°13.803 2°55.659 21.4048 0.074993 0.375861 -3.020363
2011-08-16 06:38:45 51°13.81 2°55.652 21.3899 0.074993 0.375867 -3.020363
2011-08-16 06:38:51 51°13.819 2°55.644 21.39 0.074993 0.375867 -3.020363
2011-08-16 06:38:55 51°13.825 2°55.638 21.402 0.074993 0.375867 -3.020363
2011-08-16 06:39:01 51°13.833 2°55.631 21.4116 0.074993 0.375867 -3.020363
2011-08-16 06:39:06 51°13.84 2°55.625 21.4174 0.074993 0.375867 -3.020363
2011-08-16 06:39:11 51°13.848 2°55.619 21.4247 0.074993 0.375867 -3.020363
2011-08-16 06:39:16 51°13.855 2°55.613 21.4318 0.074993 0.375873 -3.020363
2011-08-16 06:39:21 51°13.863 2°55.607 21.4323 0.074993 0.375867 -3.020363
2011-08-16 06:39:26 51°13.87 2°55.601 21.4424 0.074993 0.375867 -3.020363
2011-08-16 06:39:31 51°13.878 2°55.596 21.4615 0.074993 0.375873 -3.020363
2011-08-16 06:39:36 51°13.886 2°55.59 21.4631 0.074993 0.375873 -3.020363
2011-08-16 06:39:41 51°13.893 2°55.584 21.4604 0.074993 0.375879 -3.020363
2011-08-16 06:39:46 51°13.901 2°55.579 21.4624 0.074993 0.375879 -3.020363
2011-08-16 06:39:51 51°13.909 2°55.574 21.4628 0.074993 0.375884 -3.020363
2011-08-16 06:39:56 51°13.917 2°55.568 21.4633 0.074993 0.375884 -3.020363
2011-08-16 06:40:01 51°13.926 2°55.562 21.4612 0.074993 0.37589 -3.020363
2011-08-16 06:40:06 51°13.934 2°55.557 21.4687 0.074993 0.37589 -3.020363
2011-08-16 06:40:11 51°13.942 2°55.551 21.4634 0.074993 0.37589 -3.020363
2011-08-16 06:40:16 51°13.95 2°55.545 21.463 0.074993 0.37589 -3.020363
2011-08-16 06:40:21 51°13.959 2°55.539 21.4616 0.074993 0.37589 -3.020363
2011-08-16 06:40:26 51°13.967 2°55.533 21.4636 0.074993 0.37589 -3.020363
2011-08-16 06:40:31 51°13.976 2°55.527 21.4633 0.074993 0.37589 -3.020363
2011-08-16 06:40:36 51°13.984 2°55.521 21.4659 0.074993 0.37589 -3.020363
2011-08-16 06:40:41 51°13.993 2°55.514 21.4604 0.074993 0.375896 -3.020363
2011-08-16 06:40:46 51°14.001 2°55.508 21.4536 0.074993 0.375896 -3.020363
2011-08-16 06:40:51 51°14.01 2°55.502 21.4561 0.074993 0.375896 -3.020363
2011-08-16 06:40:56 51°14.019 2°55.496 21.4653 0.074993 0.375896 -3.020363
2011-08-16 06:41:01 51°14.028 2°55.49 21.4663 0.074993 0.375902 -3.020363
2011-08-16 06:41:06 51°14.037 2°55.483 21.4716 0.074993 0.375902 -3.020363
2011-08-16 06:41:11 51°14.046 2°55.477 21.4634 0.074993 0.375908 -3.020363
2011-08-16 06:41:16 51°14.055 2°55.471 21.4645 0.074993 0.375902 -3.020363
2011-08-16 06:41:21 51°14.064 2°55.464 21.4633 0.074993 0.375908 -3.020363
2011-08-16 06:41:26 51°14.073 2°55.458 21.4566 0.074993 0.375908 -3.020363
2011-08-16 06:41:31 51°14.082 2°55.452 21.4463 0.074993 0.375914 -3.020363
2011-08-16 06:41:36 51°14.091 2°55.445 21.4657 0.074993 0.375914 -3.020363
2011-08-16 06:41:41 51°14.1 2°55.439 21.4702 0.074993 0.375914 -3.020363
2011-08-16 06:41:46 51°14.109 2°55.432 21.4707 0.074993 0.375914 -3.020363
2011-08-16 06:41:51 51°14.118 2°55.425 21.4709 0.074993 0.37592 -3.020363
2011-08-16 06:41:55 51°14.126 2°55.42 21.4705 0.074993 0.37592 -3.020363
2011-08-16 06:42:01 51°14.137 2°55.411 21.4702 0.074993 0.37592 -3.020363
2011-08-16 06:42:06 51°14.146 2°55.404 21.4691 0.074993 0.37592 -3.020363
2011-08-16 06:42:11 51°14.155 2°55.397 21.47 0.074993 0.375926 -3.020363
2011-08-16 06:42:15 51°14.162 2°55.392 21.4691 0.074993 0.375932 -3.020363
2011-08-16 06:42:20 51°14.171 2°55.384 21.4674 0.074993 0.375926 -3.020363
2011-08-16 06:42:25 51°14.18 2°55.377 21.4755 0.074993 0.375926 -3.020363
2011-08-16 06:42:30 51°14.19 2°55.37 21.4785 0.074993 0.375937 -3.020363
2011-08-16 06:42:35 51°14.198 2°55.362 21.4784 0.074993 0.375937 -3.020363
2011-08-16 06:42:40 51°14.207 2°55.355 21.4761 0.074993 0.375937 -3.020363
2011-08-16 06:42:45 51°14.216 2°55.347 21.4748 0.074993 0.375943 -3.020363
2011-08-16 06:42:50 51°14.225 2°55.34 21.4744 0.074993 0.375949 -3.020363
2011-08-16 06:42:55 51°14.234 2°55.332 21.4762 0.074993 0.375949 -3.020363
2011-08-16 06:42:59 51°14.241 2°55.326 21.4832 0.074993 0.375949 -3.020363
2011-08-16 06:43:05 51°14.252 2°55.317 21.4902 0.074993 0.375949 -3.020363
2011-08-16 06:43:10 51°14.261 2°55.309 21.4937 0.074993 0.375949 -3.020363
2011-08-16 06:43:15 51°14.27 2°55.301 21.4852 0.074993 0.375955 -3.020363
2011-08-16 06:43:20 51°14.278 2°55.293 21.4818 0.074993 0.375961 -3.020363
2011-08-16 06:43:25 51°14.287 2°55.284 21.472 0.074993 0.375961 -3.020363
2011-08-16 06:43:30 51°14.296 2°55.276 21.4755 0.074993 0.375961 -3.020363
2011-08-16 06:43:35 51°14.305 2°55.268 21.4836 0.074993 0.375967 -3.020363
2011-08-16 06:43:40 51°14.314 2°55.26 21.4855 0.074993 0.375967 -3.020363
2011-08-16 06:43:45 51°14.323 2°55.252 21.4929 0.074993 0.375973 -3.020363
2011-08-16 06:43:50 51°14.332 2°55.244 21.5135 0.074993 0.375973 -3.020363
2011-08-16 06:43:55 51°14.34 2°55.235 21.5032 0.074993 0.375973 -3.020363
2011-08-16 06:44:00 51°14.349 2°55.227 21.4934 0.074993 0.375979 -3.020363
2011-08-16 06:44:05 51°14.358 2°55.218 21.4907 0.074993 0.375979 -3.020363
2011-08-16 06:44:10 51°14.366 2°55.21 21.4874 0.074993 0.375985 -3.020363
2011-08-16 06:44:15 51°14.375 2°55.201 21.4875 0.074993 0.375991 -3.020363
2011-08-16 06:44:19 51°14.382 2°55.194 21.5025 0.074993 0.375991 -3.020363
2011-08-16 06:44:24 51°14.39 2°55.186 21.5091 0.074993 0.375991 -3.020363
2011-08-16 06:44:29 51°14.399 2°55.177 21.5041 0.074993 0.375991 -3.020363
2011-08-16 06:44:34 51°14.408 2°55.168 21.5045 0.074993 0.375996 -3.020363
2011-08-16 06:44:39 51°14.416 2°55.16 21.4987 0.074993 0.375996 -3.020363
2011-08-16 06:44:44 51°14.425 2°55.151 21.5104 0.074993 0.376002 -3.020363
2011-08-16 06:44:49 51°14.433 2°55.142 21.4862 0.074993 0.376008 -3.020363
2011-08-16 06:44:54 51°14.442 2°55.133 21.5177 0.074993 0.376008 -3.020363
2011-08-16 06:44:59 51°14.451 2°55.124 21.4491 0.074993 0.376008 -3.020363
2011-08-16 06:45:04 51°14.459 2°55.115 21.5262 0.074993 0.376008 -3.020363
2011-08-16 06:45:09 51°14.467 2°55.107 21.4822 0.074993 0.376014 -3.020363
2011-08-16 06:45:14 51°14.476 2°55.098 21.5 0.074993 0.37602 -3.020363
2011-08-16 06:45:19 51°14.484 2°55.088 21.4954 0.074993 0.37602 -3.020363
2011-08-16 06:45:23 51°14.491 2°55.081 21.5305 0.074993 0.37602 -3.020363
2011-08-16 06:45:28 51°14.499 2°55.071 21.4961 0.074993 0.376026 -3.020363
2011-08-16 06:45:33 51°14.508 2°55.061 21.5181 0.074993 0.376026 -3.020363
2011-08-16 06:45:38 51°14.517 2°55.051 21.4796 0.074993 0.376032 -3.020363
2011-08-16 06:45:43 51°14.526 2°55.04 21.4915 0.074993 0.376032 -3.020363
2011-08-16 06:45:48 51°14.535 2°55.028 21.519 0.074993 0.376032 -3.020363
2011-08-16 06:45:53 51°14.545 2°55.016 21.5053 0.074993 0.376032 -3.020363
2011-08-16 06:45:58 51°14.554 2°55.003 21.4845 0.074993 0.376038 -3.020363
2011-08-16 06:46:03 51°14.563 2°54.99 21.5071 0.074993 0.376044 -3.020363
2011-08-16 06:46:07 51°14.571 2°54.979 21.4818 0.074993 0.37605 -3.020363
2011-08-16 06:46:12 51°14.58 2°54.964 21.4516 0.074993 0.37605 -3.020363
2011-08-16 06:46:18 51°14.591 2°54.947 21.4884 0.074993 0.37605 -3.020363
2011-08-16 06:46:23 51°14.601 2°54.932 21.4795 0.074993 0.37605 -3.020363
2011-08-16 06:46:27 51°14.61 2°54.921 21.4609 0.074993 0.376055 -3.020363
2011-08-16 06:46:32 51°14.62 2°54.907 21.4812 0.074993 0.376055 -3.020363
2011-08-16 06:46:38 51°14.633 2°54.89 21.4846 0.074993 0.376061 -3.020363
2011-08-16 06:46:43 51°14.643 2°54.876 21.4668 0.074993 0.376061 -3.020363
2011-08-16 06:46:47 51°14.652 2°54.865 21.4819 0.074993 0.376067 -3.020363
2011-08-16 06:46:52 51°14.663 2°54.851 21.4718 0.074993 0.376067 -3.020363
2011-08-16 06:46:57 51°14.674 2°54.836 21.4852 0.074993 0.376073 -3.020363
2011-08-16 06:47:03 51°14.688 2°54.819 21.4858 0.074993 0.376073 -3.020363
2011-08-16 06:47:07 51°14.697 2°54.808 21.4926 0.074993 0.376073 -3.020363
2011-08-16 06:47:12 51°14.708 2°54.793 21.4709 0.074993 0.376079 -3.020363
2011-08-16 06:47:17 51°14.72 2°54.778 21.4628 0.074993 0.376085 -3.020363
2011-08-16 06:47:23 51°14.735 2°54.76 21.2339 0.074993 0.376085 -3.020363
2011-08-16 06:47:27 51°14.744 2°54.748 20.1848 0.074993 0.376085 -3.020363
2011-08-16 06:47:33 51°14.759 2°54.729 19.8764 0.074993 0.376215 -3.020363
2011-08-16 06:47:38 51°14.771 2°54.713 19.5615 0.07489 0.375736 -3.020363
2011-08-16 06:47:43 51°14.784 2°54.697 19.4001 0.901888 5.246914 -3.020363
2011-08-16 06:47:47 51°14.794 2°54.684 19.2038 2.19558 13.990482 -3.020363
2011-08-16 06:47:52 51°14.807 2°54.666 19.148 2.19558 13.990482 -3.020363
2011-08-16 06:47:58 51°14.823 2°54.646 19.0433 2.91949 19.370501 -3.020363
2011-08-16 06:48:03 51°14.837 2°54.63 18.9915 2.883823 19.340701 -3.020363
2011-08-16 06:48:07 51°14.848 2°54.617 18.9556 3.438962 23.75528 -3.020363
2011-08-16 06:48:12 51°14.863 2°54.6 18.9401 3.755611 26.401851 -3.020363
2011-08-16 06:48:18 51°14.88 2°54.58 18.9162 4.016396 28.718983 -3.020363
2011-08-16 06:48:22 51°14.891 2°54.567 18.8995 4.016396 28.718983 -3.020363
2011-08-16 06:48:27 51°14.906 2°54.55 18.8841 4.133417 29.808722 -3.020363
2011-08-16 06:48:32 51°14.92 2°54.533 18.875 4.210031 30.559142 -3.020363
2011-08-16 06:48:38 51°14.937 2°54.513 18.8549 4.2598 31.072164 -3.020363
2011-08-16 06:48:43 51°14.951 2°54.496 18.828 4.291634 31.410035 -3.020363
2011-08-16 06:48:47 51°14.963 2°54.483 18.8383 4.305427 31.569462 -3.020363
2011-08-16 06:48:52 51°14.977 2°54.466 18.8162 4.305427 31.569462 -3.020363
2011-08-16 06:48:58 51°14.994 2°54.446 18.785 4.321397 31.752685 -3.020363
2011-08-16 06:49:03 51°15.008 2°54.428 18.7885 4.32845 31.845889 -3.020363
2011-08-16 06:49:07 51°15.018 2°54.413 18.7697 4.336435 31.937375 -3.020363
2011-08-16 06:49:12 51°15.032 2°54.396 18.7546 4.349502 32.067869 -3.020363
2011-08-16 06:49:17 51°15.046 2°54.379 18.7429 4.353962 32.12521 -3.020363
2011-08-16 06:49:23 51°15.063 2°54.357 18.7256 4.353962 32.12521 -3.020363
2011-08-16 06:49:27 51°15.074 2°54.343 18.7209 4.362778 32.217966 -3.020363
2011-08-16 06:49:33 51°15.091 2°54.322 18.7218 4.374186 32.331674 -3.020363
2011-08-16 06:49:38 51°15.105 2°54.305 18.7025 4.380513 32.403549 -3.020363
2011-08-16 06:49:43 51°15.118 2°54.287 18.7128 4.388188 32.481149 -3.020363
2011-08-16 06:49:47 51°15.13 2°54.273 18.6894 4.396071 32.563023 -3.020363
2011-08-16 06:49:52 51°15.143 2°54.254 18.6767 4.396071 32.563023 -3.020363
2011-08-16 06:49:58 51°15.159 2°54.233 18.6644 4.407376 32.669036 -3.020363
2011-08-16 06:50:02 51°15.171 2°54.219 18.6658 4.409762 32.701825 -3.020363
2011-08-16 06:50:07 51°15.185 2°54.202 18.6572 4.418993 32.786461 -3.020363
2011-08-16 06:50:12 51°15.198 2°54.183 18.6562 4.42335 32.833196 -3.020363
2011-08-16 06:50:18 51°15.214 2°54.161 18.6391 4.422727 32.834263 -3.020363
2011-08-16 06:50:22 51°15.225 2°54.146 18.6283 4.422727 32.834263 -3.020363
2011-08-16 06:50:27 51°15.239 2°54.128 18.6224 4.425632 32.869608 -3.020363
2011-08-16 06:50:33 51°15.256 2°54.107 18.6129 4.432167 32.937652 -3.020363
2011-08-16 06:50:38 51°15.269 2°54.089 18.6212 4.437457 32.988519 -3.020363
2011-08-16 06:50:43 51°15.283 2°54.071 18.6115 4.444303 33.054245 -3.020363
2011-08-16 06:50:47 51°15.294 2°54.057 18.611 4.448348 33.096713 -3.020363
2011-08-16 06:50:52 51°15.309 2°54.041 18.5968 4.448348 33.096713 -3.020363
2011-08-16 06:50:58 51°15.326 2°54.021 18.5949 4.453327 33.146353 -3.020363
2011-08-16 06:51:03 51°15.341 2°54.005 18.5805 4.455713 33.176319 -3.020363
2011-08-16 06:51:07 51°15.353 2°53.992 18.579 4.459551 33.217144 -3.020363
2011-08-16 06:51:12 51°15.367 2°53.976 18.5626 4.465775 33.274083 -3.020363
2011-08-16 06:51:18 51°15.385 2°53.956 18.569 4.466709 33.285036 -3.020363
2011-08-16 06:51:23 51°15.399 2°53.941 18.5586 4.466709 33.285036 -3.020363
2011-08-16 06:51:27 51°15.411 2°53.927 18.554 4.465153 33.279037 -3.020363
2011-08-16 06:51:33 51°15.429 2°53.908 18.5442 4.473348 33.355645 -3.020363
2011-08-16 06:51:38 51°15.443 2°53.892 18.534 4.47034 33.336902 -3.020363
2011-08-16 06:51:43 51°15.457 2°53.874 18.5347 4.477498 33.403639 -3.020363
2011-08-16 06:51:47 51°15.469 2°53.861 18.5255 4.484344 33.467186 -3.020363
2011-08-16 06:51:52 51°15.483 2°53.844 18.5184 4.484344 33.467186 -3.020363
2011-08-16 06:51:58 51°15.5 2°53.823 18.5185 4.484863 33.479181 -3.020363
2011-08-16 06:52:02 51°15.511 2°53.809 18.5137 4.489739 33.526954 -3.020363
2011-08-16 06:52:07 51°15.526 2°53.792 18.5032 4.487042 33.510809 -3.020363
2011-08-16 06:52:12 51°15.54 2°53.775 18.5072 4.49171 33.556236 -3.020363
2011-08-16 06:52:17 51°15.555 2°53.759 18.5081 4.491088 33.556799 -3.020363
2011-08-16 06:52:23 51°15.572 2°53.739 18.4935 4.491088 33.556799 -3.020363
2011-08-16 06:52:27 51°15.584 2°53.726 18.4877 4.492851 33.579885 -3.020363
2011-08-16 06:52:33 51°15.601 2°53.705 18.4865 4.489117 33.553775 -3.020363
2011-08-16 06:52:38 51°15.616 2°53.689 18.4807 4.491088 33.575396 -3.020363
2011-08-16 06:52:43 51°15.63 2°53.673 18.476 4.489947 33.569056 -3.020363
2011-08-16 06:52:47 51°15.642 2°53.66 18.4718 4.48891 33.564225 -3.020363
2011-08-16 06:52:53 51°15.661 2°53.643 18.4663 4.48891 33.564225 -3.020363
2011-08-16 06:52:58 51°15.676 2°53.627 18.4626 4.490155 33.58042 -3.020363
2011-08-16 06:53:03 51°15.691 2°53.613 18.4669 4.488806 33.573626 -3.020363
2011-08-16 06:53:07 51°15.704 2°53.603 18.4571 4.495238 33.632618 -3.020363
2011-08-16 06:53:12 51°15.72 2°53.59 18.4552 4.487354 33.571741 -3.020363
2011-08-16 06:53:18 51°15.739 2°53.575 18.45 4.487354 33.577522 -3.020363
2011-08-16 06:53:23 51°15.755 2°53.562 18.45 4.487354 33.577522 -3.020363
2011-08-16 06:53:27 51°15.768 2°53.553 18.4448 4.487977 33.587234 -3.020363
2011-08-16 06:53:32 51°15.783 2°53.541 18.4389 4.486421 33.578699 -3.020363
2011-08-16 06:53:38 51°15.803 2°53.527 18.4438 4.485176 33.572127 -3.020363
2011-08-16 06:53:43 51°15.819 2°53.516 18.4376 4.49057 33.620539 -3.020363
2011-08-16 06:53:47 51°15.832 2°53.508 18.438 4.487769 33.600929 -3.020363
2011-08-16 06:53:52 51°15.848 2°53.496 18.4351 4.487769 33.600929 -3.020363
2011-08-16 06:53:57 51°15.864 2°53.484 18.4282 4.48974 33.620022 -3.020363
2011-08-16 06:54:03 51°15.884 2°53.471 18.4318 4.493994 33.658895 -3.020363
2011-08-16 06:54:07 51°15.896 2°53.461 18.4231 4.493683 33.661443 -3.020363
2011-08-16 06:54:12 51°15.912 2°53.448 18.4202 4.492541 33.653165 -3.020363
2011-08-16 06:54:18 51°15.931 2°53.432 18.4205 4.499388 33.713809 -3.020363
2011-08-16 06:54:23 51°15.946 2°53.419 18.4206 4.499388 33.713809 -3.020363
2011-08-16 06:54:27 51°15.959 2°53.408 18.4149 4.499803 33.719227 -3.020363
2011-08-16 06:54:33 51°15.978 2°53.391 18.4132 4.497314 33.701573 -3.020363
2011-08-16 06:54:38 51°15.993 2°53.377 18.4099 4.497417 33.705673 -3.020363
2011-08-16 06:54:43 51°16.008 2°53.362 18.4052 4.4997 33.728052 -3.020363
2011-08-16 06:54:48 51°16.023 2°53.348 18.4115 4.503538 33.764143 -3.020363
2011-08-16 06:54:52 51°16.035 2°53.336 18.41 4.503538 33.764143 -3.020363
2011-08-16 06:54:58 51°16.054 2°53.319 18.4024 4.505717 33.783724 -3.020363
2011-08-16 06:55:02 51°16.066 2°53.307 18.4041 4.507169 33.797859 -3.020363
2011-08-16 06:55:07 51°16.081 2°53.292 18.4016 4.505613 33.788683 -3.020363
2011-08-16 06:55:13 51°16.099 2°53.275 18.4011 4.505198 33.787791 -3.020363
2011-08-16 06:55:18 51°16.115 2°53.261 18.4039 4.506132 33.796926 -3.020363
2011-08-16 06:55:23 51°16.13 2°53.247 18.397 4.506132 33.796926 -3.020363
2011-08-16 06:55:27 51°16.143 2°53.236 18.3974 4.50302 33.772092 -3.020363
2011-08-16 06:55:32 51°16.158 2°53.221 18.3943 4.505198 33.792328 -3.020363
2011-08-16 06:55:38 51°16.176 2°53.205 18.3928 4.505821 33.799499 -3.020363
2011-08-16 06:55:43 51°16.192 2°53.191 18.3898 4.504679 33.791861 -3.020363
2011-08-16 06:55:47 51°16.204 2°53.181 18.3875 4.502605 33.775086 -3.020363
2011-08-16 06:55:52 51°16.22 2°53.168 18.3882 4.502605 33.775086 -3.020363
2011-08-16 06:55:57 51°16.236 2°53.155 18.3864 4.506547 33.810137 -3.020363
2011-08-16 06:56:03 51°16.255 2°53.139 18.3877 4.504783 33.796622 -3.020363
2011-08-16 06:56:07 51°16.267 2°53.129 18.391 4.505613 33.805539 -3.020363
2011-08-16 06:56:13 51°16.286 2°53.114 18.3865 4.504057 33.794414 -3.020363
2011-08-16 06:56:18 51°16.302 2°53.101 18.3855 4.503124 33.788517 -3.020363
2011-08-16 06:56:23 51°16.317 2°53.089 18.3887 4.503124 33.788517 -3.020363
2011-08-16 06:56:27 51°16.33 2°53.079 18.3838 4.503331 33.792853 -3.020363
2011-08-16 06:56:32 51°16.346 2°53.066 18.3853 4.505095 33.808318 -3.020363
2011-08-16 06:56:38 51°16.365 2°53.052 18.3849 4.509037 33.842088 -3.020363
2011-08-16 06:56:42 51°16.378 2°53.043 18.3841 4.509659 33.847968 -3.020363
2011-08-16 06:56:48 51°16.397 2°53.029 18.3848 4.510489 33.856242 -3.020363
2011-08-16 06:56:52 51°16.41 2°53.02 18.3851 4.510489 33.856242 -3.020363
2011-08-16 06:56:58 51°16.43 2°53.007 18.3888 4.504887 33.809819 -3.020363
2011-08-16 06:57:02 51°16.443 2°52.998 18.3826 4.505925 33.819185 -3.020363
2011-08-16 06:57:07 51°16.459 2°52.987 18.3825 4.502294 33.788678 -3.020363
2011-08-16 06:57:13 51°16.479 2°52.975 18.3808 4.506132 33.821577 -3.020363
2011-08-16 06:57:18 51°16.494 2°52.963 18.3826 4.503124 33.796299 -3.020363
2011-08-16 06:57:23 51°16.51 2°52.952 18.3781 4.503124 33.796299 -3.020363
2011-08-16 06:57:27 51°16.523 2°52.943 18.3912 4.504784 33.810245 -3.020363
2011-08-16 06:57:33 51°16.542 2°52.928 18.3833 4.508933 33.845114 -3.020363
2011-08-16 06:57:38 51°16.558 2°52.916 18.3799 4.505095 33.813509 -3.020363
2011-08-16 06:57:43 51°16.575 2°52.904 18.3825 4.503331 33.79934 -3.020363
2011-08-16 06:57:47 51°16.587 2°52.894 18.3826 4.503539 33.802381 -3.020363
2011-08-16 06:57:52 51°16.603 2°52.881 18.3828 4.503539 33.802381 -3.020363
2011-08-16 06:57:58 51°16.622 2°52.866 18.382 4.503539 33.80303 -3.020363
2011-08-16 06:58:03 51°16.638 2°52.853 18.3861 4.504369 33.810004 -3.020363
2011-08-16 06:58:07 51°16.65 2°52.842 18.3798 4.504887 33.814363 -3.020363
2011-08-16 06:58:12 51°16.665 2°52.829 18.3826 4.503954 33.807166 -3.020363
2011-08-16 06:58:18 51°16.684 2°52.812 18.3829 4.506443 33.828738 -3.020363
2011-08-16 06:58:23 51°16.699 2°52.798 18.3832 4.506443 33.828738 -3.020363
2011-08-16 06:58:27 51°16.712 2°52.787 18.3811 4.501983 33.791253 -3.020363
2011-08-16 06:58:32 51°16.727 2°52.774 18.3808 4.494306 33.726759 -3.020363
2011-08-16 06:58:38 51°16.746 2°52.758 18.3822 4.487252 33.666865 -3.020363
2011-08-16 06:58:43 51°16.761 2°52.745 18.377 4.486422 33.660542 -3.020363
2011-08-16 06:58:47 51°16.773 2°52.735 18.3753 4.48248 33.627442 -3.020363
2011-08-16 06:58:52 51°16.789 2°52.722 18.3782 4.48248 33.627442 -3.020363
2011-08-16 06:58:57 51°16.804 2°52.709 18.3738 4.48082 33.613506 -3.020363
2011-08-16 06:59:02 51°16.819 2°52.696 18.3711 4.476878 33.581058 -3.020363
2011-08-16 06:59:07 51°16.835 2°52.683 18.3723 4.473455 33.552323 -3.020363
2011-08-16 06:59:13 51°16.853 2°52.667 18.3725 4.467958 33.506825 -3.020363
2011-08-16 06:59:18 51°16.868 2°52.655 18.3739 4.442129 33.291455 -3.020363
2011-08-16 06:59:23 51°16.884 2°52.642 18.3669 4.442129 33.291455 -3.020363
2011-08-16 06:59:27 51°16.896 2°52.632 18.3649 4.400952 32.947753 -3.020363
2011-08-16 06:59:33 51°16.915 2°52.617 18.3662 4.414124 33.059318 -3.020363
2011-08-16 06:59:38 51°16.93 2°52.605 18.3645 4.403026 32.968282 -3.020363
2011-08-16 06:59:43 51°16.946 2°52.594 18.3627 4.396803 32.916816 -3.020363
2011-08-16 06:59:47 51°16.959 2°52.585 18.3622 4.468165 33.515643 -3.020363
2011-08-16 06:59:52 51°16.975 2°52.575 18.3578 4.468165 33.515643 -3.020363
2011-08-16 06:59:58 51°16.994 2°52.562 18.3585 4.471796 33.546764 -3.020363
2011-08-16 07:00:03 51°17.01 2°52.552 18.3557 4.470447 33.537375 -3.020363
2011-08-16 07:00:07 51°17.023 2°52.544 18.351 4.468684 33.523858 -3.020363
2011-08-16 07:00:12 51°17.04 2°52.536 18.352 4.468891 33.526888 -3.020363
2011-08-16 07:00:18 51°17.059 2°52.527 18.3492 4.468995 33.528403 -3.020363
2011-08-16 07:00:23 51°17.076 2°52.521 18.3501 4.468995 33.528403 -3.020363
2011-08-16 07:00:27 51°17.09 2°52.518 18.3499 4.471692 33.552336 -3.020363
2011-08-16 07:00:32 51°17.106 2°52.515 18.3489 4.470551 33.545332 -3.020363
2011-08-16 07:00:37 51°17.123 2°52.514 18.3447 4.470655 33.548136 -3.020363
2011-08-16 07:00:43 51°17.144 2°52.514 18.3436 4.470447 33.547683 -3.020363
2011-08-16 07:00:47 51°17.157 2°52.514 18.3433 4.468891 33.535905 -3.020363
2011-08-16 07:00:52 51°17.174 2°52.514 18.3411 4.468891 33.535905 -3.020363
2011-08-16 07:00:57 51°17.191 2°52.515 18.3379 4.47273 33.568783 -3.020363
2011-08-16 07:01:02 51°17.208 2°52.516 18.3386 4.468062 33.530868 -3.020363
2011-08-16 07:01:07 51°17.225 2°52.517 18.3443 4.469514 33.544353 -3.020363
2011-08-16 07:01:13 51°17.245 2°52.519 18.3369 4.437877 33.280716 -3.020363
2011-08-16 07:01:18 51°17.262 2°52.52 18.3398 4.437669 33.280894 -3.020363
2011-08-16 07:01:23 51°17.279 2°52.521 18.3367 4.437669 33.280894 -3.020363
2011-08-16 07:01:27 51°17.293 2°52.523 18.3356 4.437566 33.281303 -3.020363
2011-08-16 07:01:33 51°17.313 2°52.524 18.3351 4.432587 33.241451 -3.020363
2011-08-16 07:01:38 51°17.33 2°52.525 18.334 4.432276 33.239479 -3.020363
2011-08-16 07:01:43 51°17.347 2°52.526 18.3329 4.431757 33.235767 -3.020363
2011-08-16 07:01:47 51°17.36 2°52.526 18.3331 4.431653 33.234897 -3.020363
2011-08-16 07:01:52 51°17.377 2°52.527 18.331 4.431653 33.234897 -3.020363
2011-08-16 07:01:58 51°17.398 2°52.527 18.3312 4.434143 33.257698 -3.020363
2011-08-16 07:02:03 51°17.415 2°52.528 18.3276 4.437669 33.287289 -3.020363
2011-08-16 07:02:07 51°17.429 2°52.528 18.3263 4.439848 33.307488 -3.020363
2011-08-16 07:02:12 51°17.445 2°52.529 18.3279 4.432898 33.249811 -3.020363
2011-08-16 07:02:18 51°17.466 2°52.53 18.3241 4.433209 33.253061 -3.020363
2011-08-16 07:02:23 51°17.483 2°52.531 18.3234 4.433209 33.253061 -3.020363
2011-08-16 07:02:27 51°17.496 2°52.534 18.3254 4.433728 33.258052 -3.020363
2011-08-16 07:02:32 51°17.513 2°52.54 18.3208 4.43072 33.234729 -3.020363
2011-08-16 07:02:37 51°17.529 2°52.547 18.3203 4.430409 33.233396 -3.020363
2011-08-16 07:02:43 51°17.547 2°52.557 18.3206 4.428957 33.221851 -3.020363
2011-08-16 07:02:47 51°17.559 2°52.566 18.32 4.426053 33.19876 -3.020363
2011-08-16 07:02:52 51°17.574 2°52.577 18.3182 4.426053 33.19876 -3.020363
2011-08-16 07:02:57 51°17.588 2°52.59 18.3148 4.423771 33.180254 -3.020363
2011-08-16 07:03:03 51°17.604 2°52.608 18.3138 4.426467 33.203518 -3.020363
2011-08-16 07:03:07 51°17.614 2°52.621 18.312 4.429268 33.227655 -3.020363
2011-08-16 07:03:13 51°17.629 2°52.642 18.3138 4.42626 33.203692 -3.020363
2011-08-16 07:03:18 51°17.639 2°52.661 18.3121 4.422215 33.17039 -3.020363
2011-08-16 07:03:23 51°17.649 2°52.681 18.3115 4.422215 33.17039 -3.020363
2011-08-16 07:03:27 51°17.657 2°52.698 18.3129 4.426779 33.209959 -3.020363
2011-08-16 07:03:32 51°17.665 2°52.72 18.3094 4.429164 33.231895 -3.020363
2011-08-16 07:03:38 51°17.675 2°52.747 18.3059 4.423771 33.187271 -3.020363
2011-08-16 07:03:42 51°17.682 2°52.765 18.3063 4.423252 33.184196 -3.020363
2011-08-16 07:03:47 51°17.689 2°52.788 18.3073 4.420763 33.163946 -3.020363
2011-08-16 07:03:52 51°17.696 2°52.811 18.3053 4.420763 33.163946 -3.020363
2011-08-16 07:03:58 51°17.706 2°52.838 18.3061 4.423667 33.189592 -3.020363
2011-08-16 07:04:03 51°17.715 2°52.86 18.306 4.42792 33.225921 -3.020363
2011-08-16 07:04:07 51°17.722 2°52.877 18.3035 4.417444 33.138647 -3.020363
2011-08-16 07:04:13 51°17.733 2°52.902 18.3038 4.423563 33.191912 -3.020363
2011-08-16 07:04:18 51°17.743 2°52.923 18.3049 4.42543 33.20886 -3.020363
2011-08-16 07:04:23 51°17.752 2°52.944 18.3011 4.42543 33.20886 -3.020363
2011-08-16 07:04:27 51°17.76 2°52.96 18.2999 4.420763 33.170962 -3.020363
2011-08-16 07:04:32 51°17.771 2°52.979 18.2995 4.426157 33.217509 -3.020363
2011-08-16 07:04:38 51°17.784 2°53.003 18.2996 4.422734 33.188778 -3.020363
2011-08-16 07:04:43 51°17.795 2°53.021 18.3007 4.422319 33.185934 -3.020363
2011-08-16 07:04:47 51°17.804 2°53.037 18.3008 4.423356 33.19464 -3.020363
2011-08-16 07:04:52 51°17.815 2°53.055 18.301 4.423356 33.19464 -3.020363
2011-08-16 07:04:58 51°17.829 2°53.078 18.3012 4.41651 33.138462 -3.020363
2011-08-16 07:05:03 51°17.84 2°53.096 18.3004 4.425742 33.216582 -3.020363
2011-08-16 07:05:07 51°17.849 2°53.111 18.3011 4.428439 33.240502 -3.020363
2011-08-16 07:05:12 51°17.861 2°53.13 18.2986 4.425742 33.21786 -3.020363
2011-08-16 07:05:18 51°17.874 2°53.152 18.3002 4.42429 33.205669 -3.020363
2011-08-16 07:05:23 51°17.886 2°53.171 18.2988 4.42429 33.205669 -3.020363
2011-08-16 07:05:28 51°17.896 2°53.19 18.2995 4.422838 33.193479 -3.020363
2011-08-16 07:05:32 51°17.905 2°53.206 18.3001 4.422215 33.188894 -3.020363
2011-08-16 07:05:38 51°17.917 2°53.229 18.2999 4.424808 33.211301 -3.020363
2011-08-16 07:05:42 51°17.926 2°53.245 18.2982 4.421593 33.184308 -3.020363
2011-08-16 07:05:47 51°17.937 2°53.265 18.3003 4.418066 33.154707 -3.020363
2011-08-16 07:05:53 51°17.95 2°53.288 18.3004 4.418066 33.154707 -3.020363
2011-08-16 07:05:58 51°17.961 2°53.307 18.2993 4.427713 33.236324 -3.020363
2011-08-16 07:06:03 51°17.972 2°53.327 18.2995 4.41537 33.132074 -3.020363
2011-08-16 07:06:07 51°17.981 2°53.342 18.2999 4.433625 33.285331 -3.020363
2011-08-16 07:06:13 51°17.995 2°53.364 18.3 4.422008 33.187791 -3.020363
2011-08-16 07:06:18 51°18.006 2°53.382 18.2976 4.430513 33.2592 -3.020363
2011-08-16 07:06:23 51°18.018 2°53.399 18.2981 4.430513 33.2592 -3.020363
2011-08-16 07:06:27 51°18.028 2°53.414 18.3012 4.424497 33.208689 -3.020363
2011-08-16 07:06:32 51°18.04 2°53.431 18.3014 4.420867 33.178852 -3.020363
2011-08-16 07:06:38 51°18.055 2°53.451 18.2997 4.424808 33.21194 -3.020363
2011-08-16 07:06:43 51°18.067 2°53.468 18.3025 4.423771 33.203232 -3.020363
2011-08-16 07:06:47 51°18.076 2°53.483 18.3004 4.418585 33.159698 -3.020363
2011-08-16 07:06:52 51°18.088 2°53.502 18.3 4.418585 33.159698 -3.020363
2011-08-16 07:06:58 51°18.101 2°53.524 18.2997 4.423045 33.198414 -3.020363
2011-08-16 07:07:03 51°18.112 2°53.544 18.3007 4.422526 33.193421 -3.020363
2011-08-16 07:07:07 51°18.12 2°53.559 18.3034 4.423979 33.204973 -3.020363
2011-08-16 07:07:12 51°18.129 2°53.581 18.3025 4.415162 33.13097 -3.020363
2011-08-16 07:07:18 51°18.14 2°53.607 18.3021 4.418792 33.161439 -3.020363
2011-08-16 07:07:23 51°18.148 2°53.629 18.2995 4.418792 33.161439 -3.020363
2011-08-16 07:07:27 51°18.154 2°53.647 18.3002 4.422112 33.1893 -3.020363
2011-08-16 07:07:32 51°18.161 2°53.67 18.3007 4.423356 33.199749 -3.020363
2011-08-16 07:07:37 51°18.169 2°53.693 18.3036 4.422734 33.193886 -3.020363
2011-08-16 07:07:43 51°18.177 2°53.721 18.3008 4.421385 33.181928 -3.020363
2011-08-16 07:07:47 51°18.183 2°53.739 18.3005 4.422423 33.190635 -3.020363
2011-08-16 07:07:53 51°18.191 2°53.767 18.3017 4.422423 33.190635 -3.020363
2011-08-16 07:07:58 51°18.198 2°53.79 18.3024 4.418274 33.15581 -3.020363
2011-08-16 07:08:03 51°18.206 2°53.813 18.3027 4.417444 33.149484 -3.020363
2011-08-16 07:08:07 51°18.213 2°53.83 18.3021 4.425327 33.215655 -3.020363
2011-08-16 07:08:13 51°18.223 2°53.857 18.3011 4.422734 33.193247 -3.020363
2011-08-16 07:08:18 51°18.232 2°53.878 18.3035 4.416303 33.139271 -3.020363
2011-08-16 07:08:23 51°18.241 2°53.9 18.302 4.416303 33.139271 -3.020363
2011-08-16 07:08:27 51°18.249 2°53.917 18.3023 4.41817 33.155578 -3.020363
2011-08-16 07:08:32 51°18.258 2°53.938 18.3021 4.414851 33.127722 -3.020363
2011-08-16 07:08:38 51°18.27 2°53.962 18.3061 4.432173 33.273136 -3.020363
2011-08-16 07:08:42 51°18.278 2°53.978 18.303 4.420763 33.177343 -3.020363
2011-08-16 07:08:47 51°18.289 2°53.998 18.3028 4.417444 33.149484 -3.020363
2011-08-16 07:08:52 51°18.3 2°54.017 18.3059 4.417444 33.149484 -3.020363
2011-08-16 07:08:58 51°18.312 2°54.041 18.3029 4.415577 33.133815 -3.020363
2011-08-16 07:09:03 51°18.323 2°54.06 18.3029 4.419726 33.168636 -3.020363
2011-08-16 07:09:07 51°18.331 2°54.077 18.3033 4.431758 33.269652 -3.020363
2011-08-16 07:09:12 51°18.342 2°54.097 18.3047 4.424497 33.20805 -3.020363
2011-08-16 07:09:18 51°18.353 2°54.122 18.3049 4.419726 33.167998 -3.020363
2011-08-16 07:09:23 51°18.363 2°54.143 18.3044 4.419726 33.167998 -3.020363
2011-08-16 07:09:27 51°18.37 2°54.16 18.3043 4.417444 33.148209 -3.020363
2011-08-16 07:09:32 51°18.379 2°54.181 18.3034 4.41734 33.147338 -3.020363
2011-08-16 07:09:37 51°18.389 2°54.203 18.3031 4.421074 33.178678 -3.020363
2011-08-16 07:09:43 51°18.399 2°54.228 18.3042 4.419 33.160629 -3.020363
2011-08-16 07:09:47 51°18.407 2°54.245 18.303 4.416822 33.142348 -3.020363
2011-08-16 07:09:53 51°18.418 2°54.271 18.3033 4.416822 33.142348 -3.020363
2011-08-16 07:09:58 51°18.428 2°54.292 18.3043 4.414021 33.118847 -3.020363
2011-08-16 07:10:03 51°18.437 2°54.313 18.3017 4.410495 33.089257 -3.020363
2011-08-16 07:10:07 51°18.445 2°54.33 18.3014 4.418481 33.156276 -3.020363
2011-08-16 07:10:12 51°18.454 2°54.351 18.3028 4.416407 33.139504 -3.020363
2011-08-16 07:10:18 51°18.465 2°54.376 18.3021 4.420556 33.174325 -3.020363
2011-08-16 07:10:22 51°18.473 2°54.393 18.3012 4.420556 33.174325 -3.020363
2011-08-16 07:10:27 51°18.482 2°54.414 18.3015 4.426675 33.225697 -3.020363
2011-08-16 07:10:32 51°18.492 2°54.435 18.2993 4.431239 33.263377 -3.020363
2011-08-16 07:10:38 51°18.504 2°54.46 18.3027 4.409146 33.07858 -3.020363
2011-08-16 07:10:42 51°18.511 2°54.477 18.3001 4.402923 33.027645 -3.020363
2011-08-16 07:10:47 51°18.521 2°54.498 18.3013 4.38498 32.877185 -3.020363
2011-08-16 07:10:53 51°18.532 2°54.523 18.3003 4.38498 32.877185 -3.020363
2011-08-16 07:10:58 51°18.54 2°54.545 18.2993 4.417444 33.149484 -3.020363
2011-08-16 07:11:03 51°18.549 2°54.567 18.2986 4.4218 33.186688 -3.020363
2011-08-16 07:11:07 51°18.555 2°54.585 18.2976 4.425638 33.219545 -3.020363
2011-08-16 07:11:12 51°18.564 2°54.607 18.2974 4.419311 33.16643 -3.020363
2011-08-16 07:11:18 51°18.573 2°54.634 18.2972 4.419622 33.168404 -3.020363
2011-08-16 07:11:23 51°18.58 2°54.657 18.2973 4.419622 33.168404 -3.020363
2011-08-16 07:11:27 51°18.587 2°54.675 18.3 4.423045 33.197137 -3.020363
2011-08-16 07:11:32 51°18.594 2°54.699 18.2971 4.427505 33.235861 -3.020363
2011-08-16 07:11:38 51°18.603 2°54.726 18.2974 4.422838 33.197311 -3.020363
2011-08-16 07:11:43 51°18.61 2°54.749 18.2946 4.42792 33.239984 -3.020363
2011-08-16 07:11:47 51°18.615 2°54.768 18.2973 4.430928 33.265884 -3.020363
2011-08-16 07:11:52 51°18.623 2°54.791 18.2942 4.430928 33.265884 -3.020363
2011-08-16 07:11:58 51°18.632 2°54.818 18.2947 4.430513 33.262399 -3.020363
2011-08-16 07:12:03 51°18.64 2°54.841 18.2959 4.422008 33.190345 -3.020363
2011-08-16 07:12:07 51°18.646 2°54.859 18.2937 4.419 33.165732 -3.020363
2011-08-16 07:12:12 51°18.655 2°54.881 18.2939 4.423667 33.204916 -3.020363
2011-08-16 07:12:18 51°18.665 2°54.907 18.2939 4.415577 33.13764 -3.020363
2011-08-16 07:12:22 51°18.672 2°54.924 18.2929 4.415577 33.13764 -3.020363
2011-08-16 07:12:27 51°18.681 2°54.946 18.2921 4.421178 33.185294 -3.020363
2011-08-16 07:12:32 51°18.69 2°54.967 18.2927 4.4218 33.191158 -3.020363
2011-08-16 07:12:37 51°18.698 2°54.989 18.2932 4.422734 33.199634 -3.020363
2011-08-16 07:12:43 51°18.709 2°55.015 18.2921 4.42346 33.206369 -3.020363
2011-08-16 07:12:47 51°18.716 2°55.032 18.2923 4.424186 33.212466 -3.020363
2011-08-16 07:12:53 51°18.727 2°55.058 18.2955 4.424186 33.212466 -3.020363
2011-08-16 07:12:58 51°18.736 2°55.079 18.2932 4.423356 33.206137 -3.020363
2011-08-16 07:13:03 51°18.745 2°55.1 18.2964 4.418378 33.164337 -3.020363
2011-08-16 07:13:07 51°18.752 2°55.117 18.2943 4.427713 33.243359 -3.020363
2011-08-16 07:13:13 51°18.762 2°55.144 18.2927 4.423149 33.205034 -3.020363
2011-08-16 07:13:18 51°18.77 2°55.166 18.2935 4.430824 33.269494 -3.020363
2011-08-16 07:13:23 51°18.777 2°55.189 18.2922 4.430824 33.269494 -3.020363
2011-08-16 07:13:27 51°18.783 2°55.208 18.2921 4.427401 33.241385 -3.020363
2011-08-16 07:13:32 51°18.79 2°55.231 18.2947 4.422527 33.199809 -3.020363
2011-08-16 07:13:38 51°18.797 2°55.26 18.2935 4.421178 33.187848 -3.020363
2011-08-16 07:13:43 51°18.803 2°55.283 18.2942 4.43238 33.281281 -3.020363
2011-08-16 07:13:47 51°18.808 2°55.303 18.2918 4.430098 33.262755 -3.020363
2011-08-16 07:13:52 51°18.813 2°55.327 18.2917 4.430098 33.262755 -3.020363
2011-08-16 07:13:58 51°18.82 2°55.357 18.2924 4.42512 33.220304 -3.020363
2011-08-16 07:14:03 51°18.825 2°55.381 18.2896 4.418896 33.168691 -3.020363
2011-08-16 07:14:07 51°18.829 2°55.401 18.2913 4.414021 33.127768 -3.020363
2011-08-16 07:14:12 51°18.834 2°55.426 18.2904 4.416303 33.146922 -3.020363
2011-08-16 07:14:17 51°18.839 2°55.451 18.2924 4.419933 33.177398 -3.020363
2011-08-16 07:14:23 51°18.844 2°55.48 18.2912 4.419933 33.177398 -3.020363
2011-08-16 07:14:27 51°18.848 2°55.5 18.2902 4.427401 33.240106 -3.020363
2011-08-16 07:14:32 51°18.853 2°55.524 18.2919 4.425431 33.224196 -3.020363
2011-08-16 07:14:38 51°18.86 2°55.553 18.2891 4.416926 33.153422 -3.020363
2011-08-16 07:14:43 51°18.867 2°55.577 18.2899 4.419311 33.17345 -3.020363
2011-08-16 07:14:47 51°18.872 2°55.596 18.2899 4.412154 33.11401 -3.020363
2011-08-16 07:14:53 51°18.88 2°55.623 18.2911 4.412154 33.11401 -3.020363
2011-08-16 07:14:58 51°18.887 2°55.647 18.2911 4.417963 33.162768 -3.020363
2011-08-16 07:15:03 51°18.894 2°55.67 18.2889 4.5772 34.503046 -3.020363
2011-08-16 07:15:07 51°18.899 2°55.689 18.2906 4.5772 34.50371 -3.020363
2011-08-16 07:15:13 51°18.908 2°55.716 18.2907 4.577304 34.505251 -3.020363
2011-08-16 07:15:18 51°18.915 2°55.739 18.2906 4.577408 34.506792 -3.020363
2011-08-16 07:15:23 51°18.922 2°55.762 18.2911 4.577408 34.506792 -3.020363
2011-08-16 07:15:27 51°18.927 2°55.781 18.2899 4.577512 34.507669 -3.020363
2011-08-16 07:15:32 51°18.934 2°55.804 18.2896 4.577512 34.507669 -3.020363
2011-08-16 07:15:38 51°18.942 2°55.832 18.2896 4.577408 34.506792 -3.020363
2011-08-16 07:15:43 51°18.949 2°55.856 18.2897 4.577512 34.507669 -3.020363
2011-08-16 07:15:47 51°18.954 2°55.874 18.2881 4.577512 34.507669 -3.020363
2011-08-16 07:15:52 51°18.961 2°55.898 18.2889 4.577512 34.507669 -3.020363
2011-08-16 07:15:58 51°18.969 2°55.925 18.289 4.577512 34.507669 -3.020363
2011-08-16 07:16:03 51°18.976 2°55.948 18.2891 4.577616 34.508545 -3.020363
2011-08-16 07:16:07 51°18.981 2°55.967 18.2882 4.577719 34.509422 -3.020363
2011-08-16 07:16:12 51°18.988 2°55.991 18.2878 4.577616 34.50921 -3.020363
2011-08-16 07:16:18 51°18.995 2°56.019 18.2887 4.577512 34.508998 -3.020363
2011-08-16 07:16:23 51°18.999 2°56.044 18.289 4.577512 34.508998 -3.020363
2011-08-16 07:16:27 51°19.003 2°56.064 18.2873 4.577616 34.509875 -3.020363
2011-08-16 07:16:33 51°19.009 2°56.093 18.2897 4.577616 34.509875 -3.020363
2011-08-16 07:16:38 51°19.014 2°56.118 18.2885 4.577616 34.509875 -3.020363
2011-08-16 07:16:43 51°19.019 2°56.142 18.2881 4.577719 34.510751 -3.020363
2011-08-16 07:16:47 51°19.022 2°56.162 18.2889 4.577719 34.510751 -3.020363
2011-08-16 07:16:53 51°19.028 2°56.191 18.2892 4.577719 34.510751 -3.020363
2011-08-16 07:16:58 51°19.033 2°56.216 18.2898 4.577823 34.511627 -3.020363
2011-08-16 07:17:03 51°19.037 2°56.241 18.2904 4.577823 34.511627 -3.020363
2011-08-16 07:17:08 51°19.042 2°56.265 18.289 4.577719 34.510751 -3.020363
2011-08-16 07:17:12 51°19.046 2°56.285 18.2877 4.577719 34.510086 -3.020363
2011-08-16 07:17:18 51°19.053 2°56.314 18.2879 4.577719 34.510086 -3.020363
2011-08-16 07:17:22 51°19.059 2°56.332 18.2879 4.577719 34.510086 -3.020363
2011-08-16 07:17:27 51°19.066 2°56.355 18.2886 4.577823 34.510963 -3.020363
2011-08-16 07:17:33 51°19.074 2°56.383 18.2877 4.577823 34.510963 -3.020363
2011-08-16 07:17:38 51°19.082 2°56.406 18.2876 4.577719 34.510086 -3.020363
2011-08-16 07:17:43 51°19.09 2°56.429 18.29 4.577719 34.510751 -3.020363
2011-08-16 07:17:47 51°19.096 2°56.447 18.2888 4.577719 34.511416 -3.020363
2011-08-16 07:17:52 51°19.104 2°56.469 18.2908 4.577719 34.511416 -3.020363
2011-08-16 07:17:58 51°19.114 2°56.496 18.2902 4.577616 34.510539 -3.020363
2011-08-16 07:18:03 51°19.122 2°56.519 18.2893 4.577616 34.510539 -3.020363
2011-08-16 07:18:07 51°19.128 2°56.537 18.29 4.577616 34.511204 -3.020363
2011-08-16 07:18:12 51°19.136 2°56.559 18.2896 4.577616 34.510539 -3.020363
2011-08-16 07:18:18 51°19.144 2°56.587 18.2899 4.577616 34.509875 -3.020363
2011-08-16 07:18:23 51°19.151 2°56.611 18.2899 4.577616 34.509875 -3.020363
2011-08-16 07:18:27 51°19.156 2°56.63 18.2912 4.577616 34.509875 -3.020363
2011-08-16 07:18:33 51°19.163 2°56.658 18.2903 4.577719 34.510086 -3.020363
2011-08-16 07:18:38 51°19.168 2°56.682 18.291 4.577719 34.510086 -3.020363
2011-08-16 07:18:43 51°19.174 2°56.707 18.2927 4.577927 34.511174 -3.020363
2011-08-16 07:18:47 51°19.178 2°56.726 18.2897 4.577927 34.511174 -3.020363
2011-08-16 07:18:52 51°19.183 2°56.751 18.293 4.577927 34.511174 -3.020363
2011-08-16 07:18:58 51°19.19 2°56.78 18.2912 4.577927 34.511174 -3.020363
2011-08-16 07:19:03 51°19.195 2°56.804 18.2919 4.577927 34.511174 -3.020363
2011-08-16 07:19:08 51°19.2 2°56.828 18.2913 4.577927 34.511174 -3.020363
2011-08-16 07:19:12 51°19.204 2°56.848 18.2927 4.578031 34.512051 -3.020363
2011-08-16 07:19:18 51°19.211 2°56.877 18.2925 4.578031 34.511386 -3.020363
2011-08-16 07:19:22 51°19.215 2°56.897 18.2921 4.578031 34.511386 -3.020363
2011-08-16 07:19:27 51°19.22 2°56.921 18.2913 4.577927 34.51051 -3.020363
2011-08-16 07:19:33 51°19.227 2°56.95 18.2917 4.577927 34.51051 -3.020363
2011-08-16 07:19:38 51°19.233 2°56.974 18.2932 4.577927 34.509845 -3.020363
2011-08-16 07:19:43 51°19.238 2°56.998 18.2927 4.578031 34.510721 -3.020363
2011-08-16 07:19:47 51°19.243 2°57.017 18.2928 4.578031 34.510721 -3.020363
2011-08-16 07:19:53 51°19.249 2°57.046 18.2931 4.578031 34.510721 -3.020363
2011-08-16 07:19:58 51°19.255 2°57.07 18.2935 4.578031 34.510721 -3.020363
2011-08-16 07:20:03 51°19.26 2°57.094 18.292 4.578031 34.510721 -3.020363
2011-08-16 07:20:07 51°19.265 2°57.113 18.2943 4.57803 34.510057 -3.020363
2011-08-16 07:20:13 51°19.271 2°57.142 18.294 4.57803 34.510057 -3.020363
2011-08-16 07:20:18 51°19.277 2°57.166 18.2949 4.578134 34.510933 -3.020363
2011-08-16 07:20:23 51°19.283 2°57.19 18.2954 4.578134 34.510933 -3.020363
2011-08-16 07:20:27 51°19.288 2°57.208 18.2945 4.578134 34.510933 -3.020363
2011-08-16 07:20:33 51°19.295 2°57.237 18.295 4.578134 34.510933 -3.020363
2011-08-16 07:20:38 51°19.303 2°57.26 18.2946 4.578134 34.510933 -3.020363
2011-08-16 07:20:43 51°19.31 2°57.282 18.2937 4.578134 34.510268 -3.020363
2011-08-16 07:20:47 51°19.316 2°57.3 18.2949 4.578238 34.51048 -3.020363
2011-08-16 07:20:52 51°19.324 2°57.323 18.2959 4.578238 34.51048 -3.020363
2011-08-16 07:20:58 51°19.334 2°57.349 18.2964 4.578238 34.51048 -3.020363
2011-08-16 07:21:03 51°19.342 2°57.371 18.295 4.578238 34.51048 -3.020363
2011-08-16 07:21:07 51°19.348 2°57.389 18.296 4.578134 34.510268 -3.020363
2011-08-16 07:21:12 51°19.356 2°57.411 18.2979 4.578238 34.511145 -3.020363
2011-08-16 07:21:17 51°19.364 2°57.433 18.2972 4.578342 34.512021 -3.020363
2011-08-16 07:21:22 51°19.371 2°57.455 18.2971 4.578342 34.512021 -3.020363
2011-08-16 07:21:27 51°19.379 2°57.477 18.2972 4.578445 34.512233 -3.020363
2011-08-16 07:21:33 51°19.389 2°57.504 18.2982 4.578445 34.511568 -3.020363
2011-08-16 07:21:38 51°19.396 2°57.526 18.2983 4.578445 34.511568 -3.020363
2011-08-16 07:21:43 51°19.404 2°57.549 18.2979 4.578549 34.512445 -3.020363
2011-08-16 07:21:47 51°19.409 2°57.567 18.2986 4.578549 34.51178 -3.020363
2011-08-16 07:21:53 51°19.418 2°57.594 18.3007 4.578549 34.51178 -3.020363
2011-08-16 07:21:58 51°19.425 2°57.616 18.301 4.575229 34.483739 -3.020363
2011-08-16 07:22:03 51°19.433 2°57.639 18.3014 4.57222 34.457667 -3.020363
2011-08-16 07:22:07 51°19.439 2°57.656 18.3021 4.578653 34.511327 -3.020363
2011-08-16 07:22:12 51°19.446 2°57.679 18.3021 4.57886 34.51308 -3.020363
2011-08-16 07:22:18 51°19.455 2°57.705 18.3017 4.578549 34.510451 -3.020363
2011-08-16 07:22:22 51°19.461 2°57.723 18.3031 4.578549 34.510451 -3.020363
2011-08-16 07:22:27 51°19.469 2°57.746 18.3032 4.579068 34.514832 -3.020363
2011-08-16 07:22:33 51°19.477 2°57.772 18.3034 4.578757 34.511539 -3.020363
2011-08-16 07:22:38 51°19.485 2°57.795 18.3048 4.578757 34.510874 -3.020363
2011-08-16 07:22:43 51°19.492 2°57.817 18.3062 4.579068 34.512838 -3.020363
2011-08-16 07:22:47 51°19.498 2°57.835 18.3067 4.579172 34.51305 -3.020363
2011-08-16 07:22:52 51°19.504 2°57.858 18.307 4.579172 34.51305 -3.020363
2011-08-16 07:22:57 51°19.511 2°57.881 18.3071 4.579172 34.512385 -3.020363
2011-08-16 07:23:03 51°19.518 2°57.909 18.3089 4.579068 34.511509 -3.020363
2011-08-16 07:23:07 51°19.522 2°57.928 18.3087 4.579275 34.513262 -3.020363
2011-08-16 07:23:12 51°19.528 2°57.952 18.3098 4.579379 34.512809 -3.020363
2011-08-16 07:23:17 51°19.533 2°57.976 18.3095 4.579587 34.513897 -3.020363
2011-08-16 07:23:23 51°19.54 2°58.004 18.3092 4.579587 34.513897 -3.020363
2011-08-16 07:23:27 51°19.544 2°58.023 18.3105 4.579587 34.512568 -3.020363
2011-08-16 07:23:33 51°19.55 2°58.052 18.3111 4.579794 34.513656 -3.020363
2011-08-16 07:23:38 51°19.555 2°58.075 18.3115 4.57969 34.512779 -3.020363
2011-08-16 07:23:43 51°19.561 2°58.099 18.3125 4.580002 34.514079 -3.020363
2011-08-16 07:23:47 51°19.565 2°58.118 18.3131 4.580002 34.513414 -3.020363
2011-08-16 07:23:52 51°19.57 2°58.142 18.3148 4.580002 34.513414 -3.020363
2011-08-16 07:23:58 51°19.577 2°58.17 18.3152 4.580105 34.514291 -3.020363
2011-08-16 07:24:02 51°19.581 2°58.189 18.3153 4.580105 34.513626 -3.020363
2011-08-16 07:24:07 51°19.586 2°58.213 18.3169 4.580209 34.514502 -3.020363
2011-08-16 07:24:12 51°19.592 2°58.236 18.3178 4.580209 34.513838 -3.020363
2011-08-16 07:24:18 51°19.599 2°58.265 18.3182 4.580313 34.513385 -3.020363
2011-08-16 07:24:23 51°19.604 2°58.288 18.321 4.580313 34.513385 -3.020363
2011-08-16 07:24:27 51°19.609 2°58.307 18.3208 4.580313 34.512721 -3.020363
2011-08-16 07:24:33 51°19.617 2°58.335 18.322 4.580313 34.512056 -3.020363
2011-08-16 07:24:38 51°19.623 2°58.358 18.3216 4.580417 34.512268 -3.020363
2011-08-16 07:24:43 51°19.629 2°58.382 18.3234 4.580417 34.511604 -3.020363
2011-08-16 07:24:47 51°19.634 2°58.4 18.3244 4.58052 34.511816 -3.020363
2011-08-16 07:24:52 51°19.64 2°58.424 18.3246 4.58052 34.511816 -3.020363
2011-08-16 07:24:58 51°19.648 2°58.452 18.3262 4.580417 34.510275 -3.020363
2011-08-16 07:25:03 51°19.653 2°58.475 18.3277 4.580624 34.510699 -3.020363
2011-08-16 07:25:07 51°19.659 2°58.494 18.3289 4.580624 34.50937 -3.020363
2011-08-16 07:25:12 51°19.665 2°58.517 18.3287 4.58052 34.50783 -3.020363
2011-08-16 07:25:18 51°19.673 2°58.544 18.3299 4.580624 34.508042 -3.020363
2011-08-16 07:25:23 51°19.68 2°58.567 18.3305 4.580624 34.508042 -3.020363
2011-08-16 07:25:27 51°19.686 2°58.586 18.3327 4.58052 34.506502 -3.020363
2011-08-16 07:25:33 51°19.695 2°58.613 18.3322 4.580416 34.504299 -3.020363
2011-08-16 07:25:38 51°19.702 2°58.635 18.3352 4.580313 34.502759 -3.020363
2011-08-16 07:25:43 51°19.709 2°58.658 18.3346 4.580105 34.500343 -3.020363
2011-08-16 07:25:47 51°19.715 2°58.676 18.3357 4.579898 34.497264 -3.020363
2011-08-16 07:25:52 51°19.722 2°58.698 18.3363 4.579898 34.497264 -3.020363
2011-08-16 07:25:58 51°19.73 2°58.726 18.3372 4.57969 34.494849 -3.020363
2011-08-16 07:26:02 51°19.735 2°58.744 18.3384 4.579483 34.492434 -3.020363
2011-08-16 07:26:07 51°19.742 2°58.767 18.3389 4.579275 34.489356 -3.020363
2011-08-16 07:26:12 51°19.748 2°58.791 18.3391 4.578549 34.4819 -3.020363
2011-08-16 07:26:18 51°19.755 2°58.818 18.3404 4.578756 34.482988 -3.020363
2011-08-16 07:26:23 51°19.761 2°58.841 18.3417 4.578756 34.482988 -3.020363
2011-08-16 07:26:27 51°19.766 2°58.86 18.3416 4.578445 34.479034 -3.020363
2011-08-16 07:26:33 51°19.773 2°58.888 18.3432 4.578237 34.47662 -3.020363
2011-08-16 07:26:38 51°19.78 2°58.911 18.3447 4.577926 34.473331 -3.020363
2011-08-16 07:26:43 51°19.786 2°58.934 18.3451 4.577615 34.470041 -3.020363
2011-08-16 07:26:47 51°19.791 2°58.952 18.3472 4.5772 34.465877 -3.020363
2011-08-16 07:26:52 51°19.798 2°58.974 18.3483 4.5772 34.465877 -3.020363
2011-08-16 07:26:58 51°19.807 2°59.001 18.3507 4.577096 34.464339 -3.020363
2011-08-16 07:27:03 51°19.815 2°59.023 18.3525 4.576681 34.459512 -3.020363
2011-08-16 07:27:07 51°19.821 2°59.04 18.3534 4.576473 34.457098 -3.020363
2011-08-16 07:27:12 51°19.829 2°59.061 18.3557 4.576058 34.452934 -3.020363
2011-08-16 07:27:18 51°19.839 2°59.087 18.3564 4.575643 34.448771 -3.020363
2011-08-16 07:27:23 51°19.847 2°59.108 18.3598 4.575643 34.448771 -3.020363
2011-08-16 07:27:27 51°19.854 2°59.125 18.3618 4.574917 34.44132 -3.020363
2011-08-16 07:27:33 51°19.863 2°59.151 18.3646 4.574191 34.433869 -3.020363
2011-08-16 07:27:38 51°19.871 2°59.173 18.3672 4.573257 34.42467 -3.020363
2011-08-16 07:27:43 51°19.879 2°59.194 18.3698 4.572531 34.416559 -3.020363
2011-08-16 07:27:47 51°19.885 2°59.211 18.3723 4.571701 34.408236 -3.020363
2011-08-16 07:27:52 51°19.893 2°59.233 18.3746 4.571701 34.408236 -3.020363
2011-08-16 07:27:57 51°19.901 2°59.255 18.3764 4.570767 34.398378 -3.020363
2011-08-16 07:28:03 51°19.91 2°59.281 18.3771 4.569625 34.386772 -3.020363
2011-08-16 07:28:07 51°19.916 2°59.298 18.3789 4.568588 34.376043 -3.020363
2011-08-16 07:28:13 51°19.924 2°59.325 18.382 4.567239 34.362031 -3.020363
2011-08-16 07:28:18 51°19.931 2°59.347 18.3831 4.565787 34.347808 -3.020363
2011-08-16 07:28:23 51°19.937 2°59.37 18.3849 4.565787 34.347808 -3.020363
2011-08-16 07:28:27 51°19.943 2°59.387 18.3856 4.564853 34.337298 -3.020363
2011-08-16 07:28:33 51°19.951 2°59.414 18.3875 4.563296 34.321546 -3.020363
2011-08-16 07:28:38 51°19.957 2°59.436 18.3898 4.562155 34.309952 -3.020363
2011-08-16 07:28:43 51°19.964 2°59.458 18.3915 4.561325 34.301641 -3.020363
2011-08-16 07:28:47 51°19.969 2°59.476 18.3928 4.560287 34.290925 -3.020363
2011-08-16 07:28:53 51°19.977 2°59.503 18.3949 4.560287 34.290925 -3.020363
2011-08-16 07:28:58 51°19.983 2°59.526 18.3975 4.55842 34.273219 -3.020363
2011-08-16 07:29:03 51°19.989 2°59.548 18.3996 4.557175 34.261417 -3.020363
2011-08-16 07:29:07 51°19.994 2°59.566 18.4015 4.55593 34.248959 -3.020363
2011-08-16 07:29:12 51°20.001 2°59.588 18.4036 4.554477 34.234755 -3.020363
2011-08-16 07:29:18 51°20.008 2°59.614 18.4042 4.553336 34.223832 -3.020363
2011-08-16 07:29:23 51°20.014 2°59.637 18.4052 4.553336 34.223832 -3.020363
2011-08-16 07:29:27 51°20.019 2°59.655 18.4073 4.551261 34.205049 -3.020363
2011-08-16 07:29:32 51°20.025 2°59.677 18.4092 4.549394 34.186703 -3.020363
2011-08-16 07:29:38 51°20.031 2°59.704 18.4122 4.547111 34.166181 -3.020363
2011-08-16 07:29:43 51°20.037 2°59.727 18.4131 4.544621 34.14326 -3.020363
2011-08-16 07:29:47 51°20.04 2°59.745 18.4156 4.542442 34.123618 -3.020363
2011-08-16 07:29:52 51°20.046 2°59.768 18.4171 4.542442 34.123618 -3.020363
2011-08-16 07:29:57 51°20.051 2°59.791 18.4182 4.540575 34.105942 -3.020363
2011-08-16 07:30:03 51°20.058 2°59.818 18.4211 4.5385 34.087179 -3.020363
2011-08-16 07:30:07 51°20.063 2°59.836 18.4227 4.53601 34.064275 -3.020363
2011-08-16 07:30:13 51°20.069 2°59.863 18.4239 4.533831 34.043993 -3.020363
2011-08-16 07:30:18 51°20.075 2°59.886 18.4253 4.530823 34.016736 -3.020363
2011-08-16 07:30:23 51°20.081 2°59.908 18.4274 4.530823 34.016736 -3.020363
2011-08-16 07:30:27 51°20.085 2°59.926 18.4285 4.528021 33.99123 -3.020363
2011-08-16 07:30:33 51°20.092 2°59.953 18.4296 4.525635 33.96987 -3.020363
2011-08-16 07:30:38 51°20.097 2°59.976 18.4308 4.52356 33.950477 -3.020363
2011-08-16 07:30:43 51°20.102 2°59.999 18.4318 4.520552 33.923893 -3.020363
2011-08-16 07:30:48 51°20.107 3°0.022 18.433 4.516713 33.890342 -3.020363
2011-08-16 07:30:52 51°20.11 3°0.04 18.4344 4.516713 33.890342 -3.020363
2011-08-16 07:30:58 51°20.116 3°0.068 18.4349 4.513705 33.863121 -3.020363
2011-08-16 07:31:02 51°20.119 3°0.086 18.4355 4.508518 33.81761 -3.020363
2011-08-16 07:31:07 51°20.125 3°0.109 18.4367 4.504368 33.781471 -3.020363
2011-08-16 07:31:13 51°20.131 3°0.135 18.437 4.50053 33.747953 -3.020363
2011-08-16 07:31:18 51°20.136 3°0.158 18.4382 4.496899 33.716184 -3.020363
2011-08-16 07:31:23 51°20.142 3°0.18 18.4384 4.496899 33.716184 -3.020363
2011-08-16 07:31:27 51°20.147 3°0.198 18.4383 4.494409 33.693998 -3.020363
2011-08-16 07:31:32 51°20.153 3°0.219 18.4401 4.491608 33.669204 -3.020363
2011-08-16 07:31:38 51°20.162 3°0.245 18.4408 4.488704 33.644189 -3.020363
2011-08-16 07:31:43 51°20.169 3°0.266 18.4418 4.487251 33.631361 -3.020363
2011-08-16 07:31:47 51°20.175 3°0.282 18.4421 4.485488 33.615924 -3.020363
2011-08-16 07:31:52 51°20.183 3°0.303 18.443 4.485488 33.615924 -3.020363
2011-08-16 07:31:58 51°20.192 3°0.328 18.444 4.483517 33.598104 -3.020363
2011-08-16 07:32:03 51°20.2 3°0.348 18.4435 4.481338 33.579834 -3.020363
2011-08-16 07:32:07 51°20.206 3°0.365 18.4453 4.479471 33.563532 -3.020363
2011-08-16 07:32:13 51°20.215 3°0.389 18.4465 4.4775 33.546362 -3.020363
2011-08-16 07:32:18 51°20.223 3°0.41 18.4474 4.475322 33.526812 -3.020363
2011-08-16 07:32:23 51°20.231 3°0.43 18.4473 4.475322 33.526812 -3.020363
2011-08-16 07:32:27 51°20.237 3°0.447 18.4489 4.47304 33.507038 -3.020363
2011-08-16 07:32:33 51°20.246 3°0.471 18.4506 4.47055 33.485528 -3.020363
2011-08-16 07:32:38 51°20.254 3°0.492 18.4513 4.467749 33.461412 -3.020363
2011-08-16 07:32:42 51°20.26 3°0.508 18.451 4.463807 33.427739 -3.020363
2011-08-16 07:32:48 51°20.268 3°0.533 18.4523 4.460073 33.39517 -3.020363
2011-08-16 07:32:52 51°20.274 3°0.55 18.4531 4.460073 33.39517 -3.020363
2011-08-16 07:32:58 51°20.281 3°0.576 18.4526 4.456858 33.367592 -3.020363
2011-08-16 07:33:02 51°20.286 3°0.593 18.455 4.453642 33.33938 -3.020363
2011-08-16 07:33:07 51°20.291 3°0.615 18.4539 4.450219 33.310075 -3.020363
2011-08-16 07:33:13 51°20.297 3°0.642 18.4548 4.44524 33.267747 -3.020363
2011-08-16 07:33:18 51°20.302 3°0.665 18.456 4.439742 33.220453 -3.020363
2011-08-16 07:33:23 51°20.306 3°0.687 18.4554 4.439742 33.220453 -3.020363
2011-08-16 07:33:27 51°20.31 3°0.705 18.4557 4.435905 33.18706 -3.020363
2011-08-16 07:33:33 51°20.316 3°0.732 18.4563 4.431652 33.150838 -3.020363
2011-08-16 07:33:38 51°20.32 3°0.755 18.4562 4.428436 33.123301 -3.020363
2011-08-16 07:33:43 51°20.325 3°0.777 18.4567 4.424391 33.088828 -3.020363
2011-08-16 07:33:47 51°20.329 3°0.795 18.4572 4.419827 33.050658 -3.020363
2011-08-16 07:33:52 51°20.334 3°0.817 18.4576 4.419827 33.050658 -3.020363
2011-08-16 07:33:58 51°20.342 3°0.843 18.4587 4.417027 33.026606 -3.020363
2011-08-16 07:34:03 51°20.348 3°0.864 18.4586 4.41236 32.986948 -3.020363
2011-08-16 07:34:07 51°20.353 3°0.881 18.4597 4.40987 32.966138 -3.020363
2011-08-16 07:34:12 51°20.36 3°0.902 18.4597 4.406966 32.941231 -3.020363
2011-08-16 07:34:18 51°20.369 3°0.927 18.4602 4.403751 32.914358 -3.020363
2011-08-16 07:34:23 51°20.375 3°0.948 18.4608 4.403751 32.914358 -3.020363
2011-08-16 07:34:27 51°20.382 3°0.964 18.4621 4.400639 32.888355 -3.020363
2011-08-16 07:34:32 51°20.388 3°0.985 18.4626 4.397839 32.864956 -3.020363
2011-08-16 07:34:38 51°20.397 3°1.009 18.4627 4.395039 32.840929 -3.020363
2011-08-16 07:34:43 51°20.404 3°1.03 18.4633 4.392653 32.820373 -3.020363
2011-08-16 07:34:47 51°20.409 3°1.047 18.4639 4.39006 32.798086 -3.020363
2011-08-16 07:34:52 51°20.416 3°1.068 18.464 4.39006 32.798086 -3.020363
2011-08-16 07:34:57 51°20.424 3°1.088 18.465 4.387467 32.775802 -3.020363
2011-08-16 07:35:03 51°20.432 3°1.113 18.465 4.385082 32.755254 -3.020363
2011-08-16 07:35:07 51°20.437 3°1.13 18.466 4.382282 32.731244 -3.020363
2011-08-16 07:35:13 51°20.445 3°1.155 18.467 4.379274 32.705506 -3.020363
2011-08-16 07:35:18 51°20.452 3°1.176 18.4683 4.376785 32.684727 -3.020363
2011-08-16 07:35:23 51°20.458 3°1.197 18.4681 4.376785 32.684727 -3.020363
2011-08-16 07:35:27 51°20.463 3°1.214 18.4701 4.374296 32.663324 -3.020363
2011-08-16 07:35:33 51°20.471 3°1.239 18.4689 4.371288 32.637597 -3.020363
2011-08-16 07:35:38 51°20.478 3°1.26 18.4713 4.368695 32.615335 -3.020363
2011-08-16 07:35:43 51°20.484 3°1.281 18.4702 4.366517 32.596538 -3.020363
2011-08-16 07:35:47 51°20.489 3°1.299 18.4729 4.364858 32.58207 -3.020363
2011-08-16 07:35:52 51°20.495 3°1.32 18.4716 4.364858 32.58207 -3.020363
2011-08-16 07:35:58 51°20.503 3°1.346 18.4719 4.362888 32.565007 -3.020363
2011-08-16 07:36:03 51°20.508 3°1.367 18.4726 4.361643 32.554002 -3.020363
2011-08-16 07:36:07 51°20.513 3°1.384 18.4717 4.360399 32.542998 -3.020363
2011-08-16 07:36:12 51°20.517 3°1.406 18.4731 4.359361 32.534348 -3.020363
2011-08-16 07:36:18 51°20.523 3°1.433 18.4727 4.358428 32.525318 -3.020363
2011-08-16 07:36:23 51°20.528 3°1.455 18.4719 4.358428 32.525318 -3.020363
2011-08-16 07:36:27 51°20.531 3°1.473 18.4714 4.357287 32.515181 -3.020363
2011-08-16 07:36:32 51°20.536 3°1.495 18.4716 4.355524 32.499857 -3.020363
2011-08-16 07:36:37 51°20.541 3°1.518 18.4712 4.354176 32.488614 -3.020363
2011-08-16 07:36:43 51°20.546 3°1.544 18.471 4.352828 32.476751 -3.020363
2011-08-16 07:36:47 51°20.55 3°1.562 18.4695 4.351583 32.466375 -3.020363
2011-08-16 07:36:52 51°20.555 3°1.585 18.4706 4.351583 32.466375 -3.020363
2011-08-16 07:36:57 51°20.559 3°1.607 18.4691 4.350339 32.455999 -3.020363
2011-08-16 07:37:03 51°20.565 3°1.634 18.4709 4.349302 32.446732 -3.020363
2011-08-16 07:37:07 51°20.569 3°1.652 18.4698 4.347746 32.434385 -3.020363
2011-08-16 07:37:13 51°20.574 3°1.679 18.4682 4.345983 32.419689 -3.020363
2011-08-16 07:37:18 51°20.579 3°1.701 18.4687 4.344013 32.403884 -3.020363
2011-08-16 07:37:23 51°20.584 3°1.724 18.4678 4.344013 32.403884 -3.020363
2011-08-16 07:37:27 51°20.589 3°1.741 18.4669 4.342042 32.388081 -3.020363
2011-08-16 07:37:32 51°20.595 3°1.762 18.4671 4.340072 32.371659 -3.020363
2011-08-16 07:37:38 51°20.603 3°1.787 18.4664 4.339346 32.365609 -3.020363
2011-08-16 07:37:42 51°20.608 3°1.805 18.4653 4.338102 32.355238 -3.020363
2011-08-16 07:37:47 51°20.615 3°1.825 18.4664 4.337065 32.347215 -3.020363
2011-08-16 07:37:52 51°20.622 3°1.846 18.4661 4.337065 32.347215 -3.020363
2011-08-16 07:37:58 51°20.63 3°1.871 18.4661 4.334783 32.328822 -3.020363
2011-08-16 07:38:03 51°20.637 3°1.891 18.4661 4.33188 32.305245 -3.020363
2011-08-16 07:38:07 51°20.643 3°1.908 18.466 4.329805 32.287965 -3.020363
2011-08-16 07:38:12 51°20.65 3°1.929 18.4662 4.327628 32.270439 -3.020363
2011-08-16 07:38:18 51°20.658 3°1.955 18.4656 4.324724 32.246868 -3.020363
2011-08-16 07:38:23 51°20.664 3°1.976 18.4661 4.324724 32.246868 -3.020363
2011-08-16 07:38:27 51°20.669 3°1.993 18.4652 4.323065 32.233047 -3.020363
2011-08-16 07:38:32 51°20.675 3°2.014 18.4672 4.319954 32.207135 -3.020363
2011-08-16 07:38:38 51°20.683 3°2.04 18.4671 4.317361 32.185544 -3.020363
2011-08-16 07:38:43 51°20.689 3°2.061 18.4665 4.314873 32.164819 -3.020363
2011-08-16 07:38:47 51°20.695 3°2.078 18.4662 4.312384 32.144096 -3.020363
2011-08-16 07:38:52 51°20.701 3°2.1 18.4667 4.312384 32.144096 -3.020363
2011-08-16 07:38:58 51°20.708 3°2.126 18.4649 4.310206 32.125965 -3.020363
2011-08-16 07:39:03 51°20.714 3°2.147 18.4644 4.308132 32.108699 -3.020363
2011-08-16 07:39:07 51°20.72 3°2.164 18.4644 4.305955 32.090572 -3.020363
2011-08-16 07:39:12 51°20.726 3°2.186 18.462 4.304814 32.081077 -3.020363
2011-08-16 07:39:18 51°20.733 3°2.212 18.4634 4.303258 32.06813 -3.020363
2011-08-16 07:39:23 51°20.739 3°2.233 18.4627 4.303258 32.06813 -3.020363
2011-08-16 07:39:28 51°20.746 3°2.255 18.4626 4.301807 32.055434 -3.020363
2011-08-16 07:39:32 51°20.751 3°2.272 18.4628 4.29994 32.040513 -3.020363
2011-08-16 07:39:38 51°20.758 3°2.298 18.4637 4.298177 32.026455 -3.020363
2011-08-16 07:39:42 51°20.762 3°2.316 18.4611 4.296622 32.013512 -3.020363
2011-08-16 07:39:47 51°20.768 3°2.338 18.4628 4.294652 31.998342 -3.020363
2011-08-16 07:39:53 51°20.774 3°2.365 18.4615 4.294652 31.998342 -3.020363
2011-08-16 07:39:58 51°20.779 3°2.387 18.4617 4.2932 31.986263 -3.020363
2011-08-16 07:40:03 51°20.784 3°2.41 18.4621 4.291437 31.972208 -3.020363
2011-08-16 07:40:07 51°20.787 3°2.428 18.4595 4.289882 31.958655 -3.020363
2011-08-16 07:40:13 51°20.793 3°2.454 18.4597 4.288741 31.949166 -3.020363
2011-08-16 07:40:18 51°20.797 3°2.477 18.4598 4.287186 31.936227 -3.020363
2011-08-16 07:40:23 51°20.802 3°2.5 18.4575 4.287186 31.936227 -3.020363
2011-08-16 07:40:27 51°20.805 3°2.518 18.4584 4.286356 31.929937 -3.020363
2011-08-16 07:40:32 51°20.809 3°2.541 18.4577 4.285112 31.919587 -3.020363
2011-08-16 07:40:38 51°20.815 3°2.568 18.4564 4.283764 31.908374 -3.020363
2011-08-16 07:40:43 51°20.82 3°2.591 18.4577 4.282001 31.894323 -3.020363
2011-08-16 07:40:47 51°20.824 3°2.609 18.4554 4.280861 31.885446 -3.020363
2011-08-16 07:40:52 51°20.829 3°2.631 18.4549 4.280861 31.885446 -3.020363
2011-08-16 07:40:58 51°20.836 3°2.657 18.4536 4.279202 31.872258 -3.020363
2011-08-16 07:41:03 51°20.842 3°2.679 18.4526 4.27775 31.860795 -3.020363
2011-08-16 07:41:07 51°20.846 3°2.697 18.4543 4.276194 31.84786 -3.020363
2011-08-16 07:41:12 51°20.852 3°2.718 18.4528 4.274743 31.837007 -3.020363
2011-08-16 07:41:18 51°20.859 3°2.744 18.4529 4.273395 31.826407 -3.020363
2011-08-16 07:41:23 51°20.866 3°2.765 18.4515 4.273395 31.826407 -3.020363
2011-08-16 07:41:27 51°20.871 3°2.782 18.4535 4.271632 31.812358 -3.020363
2011-08-16 07:41:32 51°20.878 3°2.803 18.4518 4.269766 31.797448 -3.020363
2011-08-16 07:41:38 51°20.886 3°2.828 18.4525 4.268314 31.785986 -3.020363
2011-08-16 07:41:42 51°20.892 3°2.845 18.4514 4.266862 31.774525 -3.020363
2011-08-16 07:41:47 51°20.898 3°2.866 18.4518 4.265411 31.762457 -3.020363
2011-08-16 07:41:53 51°20.906 3°2.892 18.4497 4.265411 31.762457 -3.020363
2011-08-16 07:41:58 51°20.912 3°2.914 18.4496 4.264063 31.751858 -3.020363
2011-08-16 07:42:03 51°20.918 3°2.935 18.4513 4.262404 31.738067 -3.020363
2011-08-16 07:42:07 51°20.923 3°2.952 18.4498 4.260538 31.72316 -3.020363
2011-08-16 07:42:13 51°20.931 3°2.978 18.4474 4.259086 31.711093 -3.020363
2011-08-16 07:42:18 51°20.937 3°2.999 18.4478 4.257323 31.696443 -3.020363
2011-08-16 07:42:23 51°20.944 3°3.02 18.4463 4.257323 31.696443 -3.020363
2011-08-16 07:42:27 51°20.949 3°3.038 18.446 4.255457 31.680931 -3.020363
2011-08-16 07:42:33 51°20.957 3°3.062 18.4481 4.25359 31.665421 -3.020363
2011-08-16 07:42:38 51°20.964 3°3.084 18.4458 4.252346 31.655687 -3.020363
2011-08-16 07:42:43 51°20.97 3°3.105 18.4462 4.250687 31.642508 -3.020363
2011-08-16 07:42:47 51°20.975 3°3.122 18.4449 4.248717 31.626744 -3.020363
2011-08-16 07:42:52 51°20.982 3°3.143 18.4438 4.248717 31.626744 -3.020363
2011-08-16 07:42:58 51°20.989 3°3.168 18.4424 4.247369 31.616149 -3.020363
2011-08-16 07:43:03 51°20.996 3°3.189 18.4425 4.246022 31.605555 -3.020363
2011-08-16 07:43:07 51°21 3°3.207 18.4432 4.244985 31.597545 -3.020363
2011-08-16 07:43:12 51°21.006 3°3.228 18.4444 4.244052 31.589792 -3.020363
2011-08-16 07:43:18 51°21.013 3°3.254 18.4428 4.242807 31.579456 -3.020363
2011-08-16 07:43:23 51°21.018 3°3.276 18.4427 4.242807 31.579456 -3.020363
2011-08-16 07:43:27 51°21.022 3°3.294 18.4439 4.240837 31.564298 -3.020363
2011-08-16 07:43:32 51°21.026 3°3.316 18.4425 4.238764 31.547676 -3.020363
2011-08-16 07:43:37 51°21.03 3°3.338 18.4422 4.23669 31.530451 -3.020363
2011-08-16 07:43:43 51°21.035 3°3.365 18.4414 4.235135 31.517534 -3.020363
2011-08-16 07:43:47 51°21.038 3°3.383 18.4409 4.233476 31.504359 -3.020363
2011-08-16 07:43:53 51°21.043 3°3.41 18.441 4.233476 31.504359 -3.020363
2011-08-16 07:43:58 51°21.048 3°3.432 18.4407 4.231713 31.489118 -3.020363
2011-08-16 07:44:03 51°21.053 3°3.454 18.4399 4.230573 31.479646 -3.020363
2011-08-16 07:44:07 51°21.058 3°3.471 18.4411 4.22881 31.465612 -3.020363
2011-08-16 07:44:13 51°21.065 3°3.497 18.4408 4.227048 31.452181 -3.020363
2011-08-16 07:44:18 51°21.071 3°3.518 18.4405 4.226011 31.443572 -3.020363
2011-08-16 07:44:23 51°21.077 3°3.539 18.4411 4.226011 31.443572 -3.020363
2011-08-16 07:44:27 51°21.082 3°3.556 18.4424 4.22487 31.434102 -3.020363
2011-08-16 07:44:32 51°21.089 3°3.577 18.4416 4.223523 31.424114 -3.020363
2011-08-16 07:44:38 51°21.096 3°3.602 18.4422 4.222175 31.413525 -3.020363
2011-08-16 07:44:42 51°21.101 3°3.62 18.4417 4.221345 31.406038 -3.020363
2011-08-16 07:44:47 51°21.107 3°3.641 18.4431 4.220516 31.399753 -3.020363
2011-08-16 07:44:53 51°21.114 3°3.667 18.4438 4.220516 31.399753 -3.020363
2011-08-16 07:44:58 51°21.119 3°3.689 18.4423 4.21979 31.393127 -3.020363
2011-08-16 07:45:03 51°21.124 3°3.711 18.4424 4.219168 31.387963 -3.020363
2011-08-16 07:45:07 51°21.127 3°3.729 18.444 4.218546 31.382198 -3.020363
2011-08-16 07:45:12 51°21.132 3°3.751 18.4433 4.21782 31.376174 -3.020363
2011-08-16 07:45:18 51°21.137 3°3.778 18.4424 4.216887 31.368428 -3.020363
2011-08-16 07:45:23 51°21.142 3°3.8 18.4441 4.216887 31.368428 -3.020363
2011-08-16 07:45:27 51°21.146 3°3.818 18.4436 4.216265 31.362665 -3.020363
2011-08-16 07:45:32 51°21.15 3°3.84 18.4441 4.215747 31.357762 -3.020363
2011-08-16 07:45:37 51°21.155 3°3.863 18.4437 4.215021 31.351738 -3.020363
2011-08-16 07:45:43 51°21.16 3°3.89 18.4459 4.214814 31.350017 -3.020363
2011-08-16 07:45:47 51°21.164 3°3.908 18.4448 4.214606 31.348297 -3.020363
2011-08-16 07:45:53 51°21.17 3°3.935 18.4448 4.214606 31.348297 -3.020363
2011-08-16 07:45:58 51°21.174 3°3.957 18.4446 4.214503 31.347436 -3.020363
2011-08-16 07:46:03 51°21.179 3°3.979 18.4447 4.214295 31.345715 -3.020363
2011-08-16 07:46:07 51°21.183 3°3.997 18.4442 4.214088 31.343394 -3.020363
2011-08-16 07:46:12 51°21.188 3°4.019 18.4453 4.213984 31.342534 -3.020363
2011-08-16 07:46:18 51°21.194 3°4.046 18.4442 4.214191 31.343655 -3.020363
2011-08-16 07:46:22 51°21.198 3°4.063 18.4465 4.214191 31.343655 -3.020363
2011-08-16 07:46:27 51°21.203 3°4.085 18.4464 4.214191 31.343655 -3.020363
2011-08-16 07:46:32 51°21.209 3°4.107 18.4467 4.214295 31.344515 -3.020363
2011-08-16 07:46:38 51°21.215 3°4.134 18.4476 4.214088 31.342795 -3.020363
2011-08-16 07:46:43 51°21.221 3°4.155 18.4475 4.213777 31.340813 -3.020363
2011-08-16 07:46:47 51°21.226 3°4.172 18.4479 4.213777 31.340213 -3.020363
2011-08-16 07:46:53 51°21.233 3°4.198 18.4484 4.213777 31.340213 -3.020363
2011-08-16 07:46:58 51°21.24 3°4.219 18.4497 4.213569 31.338493 -3.020363
2011-08-16 07:47:03 51°21.247 3°4.241 18.4492 4.213362 31.336172 -3.020363
2011-08-16 07:47:07 51°21.252 3°4.257 18.4503 4.213362 31.336172 -3.020363
2011-08-16 07:47:13 51°21.26 3°4.283 18.4497 4.213362 31.335572 -3.020363
2011-08-16 07:47:18 51°21.267 3°4.304 18.4512 4.213155 31.333852 -3.020363
2011-08-16 07:47:23 51°21.273 3°4.325 18.4516 4.213155 31.333852 -3.020363
2011-08-16 07:47:27 51°21.279 3°4.342 18.4512 4.213258 31.334112 -3.020363
2011-08-16 07:47:32 51°21.285 3°4.363 18.4521 4.213258 31.333513 -3.020363
2011-08-16 07:47:38 51°21.292 3°4.389 18.4519 4.213051 31.331792 -3.020363
2011-08-16 07:47:43 51°21.298 3°4.411 18.4528 4.212947 31.330332 -3.020363
2011-08-16 07:47:47 51°21.302 3°4.429 18.4533 4.212947 31.329733 -3.020363
2011-08-16 07:47:52 51°21.306 3°4.451 18.4526 4.212947 31.329733 -3.020363
2011-08-16 07:47:58 51°21.312 3°4.478 18.4528 4.212844 31.328273 -3.020363
2011-08-16 07:48:03 51°21.317 3°4.5 18.4532 4.212533 31.325692 -3.020363
2011-08-16 07:48:07 51°21.322 3°4.518 18.4532 4.212533 31.325093 -3.020363
2011-08-16 07:48:12 51°21.327 3°4.539 18.4521 4.212222 31.321913 -3.020363
2011-08-16 07:48:18 51°21.334 3°4.566 18.4521 4.212118 31.320454 -3.020363
2011-08-16 07:48:23 51°21.341 3°4.587 18.4526 4.212118 31.320454 -3.020363
2011-08-16 07:48:27 51°21.345 3°4.605 18.452 4.212221 31.321314 -3.020363
2011-08-16 07:48:32 51°21.35 3°4.627 18.4519 4.212014 31.319593 -3.020363
2011-08-16 07:48:38 51°21.357 3°4.654 18.4523 4.21191 31.318733 -3.020363
2011-08-16 07:48:43 51°21.363 3°4.676 18.4524 4.211703 31.317013 -3.020363
2011-08-16 07:48:47 51°21.368 3°4.693 18.4535 4.211496 31.315293 -3.020363
2011-08-16 07:48:52 51°21.374 3°4.715 18.4533 4.211496 31.315293 -3.020363
2011-08-16 07:48:58 51°21.381 3°4.742 18.4526 4.211081 31.311852 -3.020363
2011-08-16 07:49:03 51°21.387 3°4.763 18.4517 4.21077 31.309871 -3.020363
2011-08-16 07:49:07 51°21.392 3°4.781 18.4541 4.210563 31.30815 -3.020363
2011-08-16 07:49:13 51°21.399 3°4.807 18.4535 4.210252 31.30557 -3.020363
2011-08-16 07:49:18 51°21.405 3°4.829 18.455 4.209837 31.302129 -3.020363
2011-08-16 07:49:23 51°21.41 3°4.852 18.4535 4.209837 31.302129 -3.020363
2011-08-16 07:49:27 51°21.414 3°4.87 18.4537 4.209526 31.299549 -3.020363
2011-08-16 07:49:33 51°21.419 3°4.897 18.4538 4.209215 31.29637 -3.020363
2011-08-16 07:49:38 51°21.423 3°4.92 18.4534 4.208904 31.29379 -3.020363
2011-08-16 07:49:43 51°21.427 3°4.944 18.4536 4.208696 31.29207 -3.020363
2011-08-16 07:49:47 51°21.43 3°4.962 18.4542 4.208489 31.289751 -3.020363
2011-08-16 07:49:52 51°21.434 3°4.986 18.4557 4.208489 31.289751 -3.020363
2011-08-16 07:49:58 51°21.439 3°5.013 18.4537 4.208282 31.287432 -3.020363
2011-08-16 07:50:03 51°21.443 3°5.037 18.4551 4.207971 31.284254 -3.020363
2011-08-16 07:50:07 51°21.446 3°5.055 18.4549 4.207763 31.283132 -3.020363
2011-08-16 07:50:12 51°21.45 3°5.079 18.4559 4.207556 31.281412 -3.020363
2011-08-16 07:50:18 51°21.456 3°5.107 18.4558 4.207349 31.279692 -3.020363
2011-08-16 07:50:23 51°21.46 3°5.13 18.4548 4.207349 31.279692 -3.020363
2011-08-16 07:50:27 51°21.464 3°5.149 18.4557 4.207245 31.278832 -3.020363
2011-08-16 07:50:32 51°21.468 3°5.172 18.4571 4.207038 31.277112 -3.020363
2011-08-16 07:50:38 51°21.473 3°5.2 18.4576 4.206934 31.276252 -3.020363
2011-08-16 07:50:43 51°21.477 3°5.224 18.4579 4.206934 31.275654 -3.020363
2011-08-16 07:50:47 51°21.48 3°5.243 18.4589 4.206934 31.275654 -3.020363
2011-08-16 07:50:52 51°21.484 3°5.266 18.4601 4.206934 31.275654 -3.020363
2011-08-16 07:50:58 51°21.489 3°5.294 18.4595 4.20683 31.274196 -3.020363
2011-08-16 07:51:03 51°21.493 3°5.318 18.4604 4.206623 31.272476 -3.020363
2011-08-16 07:51:08 51°21.497 3°5.341 18.4602 4.206519 31.271616 -3.020363
2011-08-16 07:51:12 51°21.501 3°5.36 18.4612 4.206519 31.271018 -3.020363
2011-08-16 07:51:18 51°21.506 3°5.388 18.4602 4.206623 31.271279 -3.020363
2011-08-16 07:51:23 51°21.51 3°5.411 18.4622 4.206623 31.271279 -3.020363
2011-08-16 07:51:27 51°21.513 3°5.43 18.4612 4.206623 31.270681 -3.020363
2011-08-16 07:51:33 51°21.519 3°5.457 18.4606 4.206623 31.270083 -3.020363
2011-08-16 07:51:38 51°21.523 3°5.481 18.4608 4.206623 31.269485 -3.020363
2011-08-16 07:51:43 51°21.528 3°5.504 18.462 4.206623 31.269485 -3.020363
2011-08-16 07:51:47 51°21.532 3°5.522 18.4612 4.206727 31.269747 -3.020363
2011-08-16 07:51:52 51°21.537 3°5.545 18.4603 4.206727 31.269747 -3.020363
2011-08-16 07:51:58 51°21.544 3°5.571 18.4618 4.206727 31.269747 -3.020363
2011-08-16 07:52:03 51°21.55 3°5.593 18.4613 4.206934 31.271466 -3.020363
2011-08-16 07:52:07 51°21.555 3°5.611 18.4613 4.206934 31.271466 -3.020363
2011-08-16 07:52:12 51°21.561 3°5.633 18.4615 4.207038 31.271728 -3.020363
2011-08-16 07:52:17 51°21.567 3°5.655 18.4619 4.207038 31.272326 -3.020363
2011-08-16 07:52:23 51°21.575 3°5.682 18.4607 4.207038 31.272326 -3.020363
2011-08-16 07:52:27 51°21.579 3°5.7 18.4622 4.207141 31.273186 -3.020363
2011-08-16 07:52:32 51°21.585 3°5.723 18.4616 4.207141 31.273186 -3.020363
2011-08-16 07:52:38 51°21.59 3°5.751 18.4601 4.207245 31.273448 -3.020363
2011-08-16 07:52:43 51°21.595 3°5.774 18.4602 4.207245 31.273448 -3.020363
2011-08-16 07:52:47 51°21.598 3°5.793 18.461 4.207349 31.274307 -3.020363
2011-08-16 07:52:52 51°21.603 3°5.817 18.4596 4.207349 31.274307 -3.020363
2011-08-16 07:52:58 51°21.608 3°5.845 18.459 4.207452 31.275167 -3.020363
2011-08-16 07:53:03 51°21.612 3°5.868 18.4588 4.207452 31.274569 -3.020363
2011-08-16 07:53:08 51°21.616 3°5.892 18.4586 4.207452 31.274569 -3.020363
2011-08-16 07:53:12 51°21.62 3°5.911 18.4586 4.207556 31.276027 -3.020363
2011-08-16 07:53:18 51°21.624 3°5.939 18.4577 4.207556 31.276625 -3.020363
2011-08-16 07:53:22 51°21.627 3°5.958 18.4572 4.207556 31.276625 -3.020363
2011-08-16 07:53:27 51°21.632 3°5.982 18.4567 4.207556 31.276625 -3.020363
2011-08-16 07:53:32 51°21.636 3°6.005 18.4562 4.207556 31.276625 -3.020363
2011-08-16 07:53:38 51°21.641 3°6.033 18.4566 4.20766 31.278084 -3.020363
2011-08-16 07:53:43 51°21.646 3°6.057 18.4561 4.20766 31.278682 -3.020363